GFSSGP_250_spd_000.txt.gz
Wind_Speed
92 88 91 89 84 88 84 82 86 85 78 80 80 79 77 79 79 81 80 81 81 80 82 84 86 86 84 85 90 96 97 99 99 105 99 101 105 107 108 105 98 81 83 61 37 28 29 27 25
93 89 90 94 88 84 82 79 80 78 79 76 79 79 81 80 76 81 80 79 79 82 82 84 86 85 87 94 97 99 100 103 104 100 102 104 107 107 99 80 79 66 54 35 29 27 28 27 23
94 91 91 90 83 77 74 79 82 79 75 80 84 85 87 86 82 84 83 82 84 84 79 81 88 95 99 98 100 99 100 99 96 101 104 109 101 88 75 70 57 44 36 31 28 31 31 29 26
89 89 91 86 83 78 74 77 81 70 73 72 77 82 91 90 87 88 89 87 86 88 95 100 99 100 96 95 97 100 98 93 97 102 108 102 82 68 60 48 41 35 33 34 35 35 36 36 35
89 93 88 83 81 79 80 82 78 77 76 71 73 77 78 74 80 85 83 88 88 91 93 92 93 91 94 97 97 96 96 97 102 104 102 83 68 59 48 42 38 36 39 37 39 40 40 39 38
86 94 90 86 88 84 80 85 88 80 77 71 70 79 78 83 82 82 84 78 79 80 84 88 90 94 93 91 91 95 98 101 101 94 74 64 57 50 43 39 38 36 37 38 43 43 45 45 41
83 90 84 82 86 88 84 80 80 74 76 72 74 82 86 80 76 72 75 79 82 86 89 90 91 89 90 93 94 96 98 86 77 62 58 55 45 41 38 38 41 41 41 44 48 49 49 48 40
78 87 86 82 81 86 85 88 84 76 78 79 87 85 80 81 82 83 84 82 84 87 92 91 92 92 93 94 93 94 89 78 55 57 49 49 41 43 45 45 46 51 52 53 55 55 51 47 40
75 80 90 81 81 82 85 86 83 83 84 86 92 85 83 82 82 85 85 84 87 90 90 93 91 91 91 89 88 83 65 59 59 55 50 47 45 46 46 47 50 50 53 54 52 48 46 42 40
72 70 77 80 90 88 85 87 86 84 84 87 90 86 85 86 84 84 85 83 86 87 88 87 86 86 88 85 71 56 57 53 52 48 50 49 48 50 52 55 54 56 56 54 46 41 42 41 42
66 76 74 78 79 82 79 79 80 81 81 81 79 82 84 81 80 79 81 84 85 83 88 87 84 85 79 65 62 52 49 47 48 50 55 56 54 55 54 55 56 54 51 48 48 46 43 43 43
63 68 72 79 75 84 85 83 87 83 87 83 83 78 79 83 83 81 80 80 82 85 79 84 80 76 67 53 47 48 48 50 50 47 46 50 55 57 55 52 48 49 49 50 49 46 48 49 49
55 62 65 69 72 78 79 79 83 83 86 89 87 82 81 74 78 81 79 81 82 77 70 67 69 62 52 49 49 48 46 47 42 48 52 55 57 53 48 49 50 51 48 48 49 52 50 50 50
56 55 58 61 69 71 71 73 77 81 75 73 73 76 79 81 76 75 78 80 66 68 66 61 57 57 50 50 44 48 46 44 48 53 58 58 56 56 53 49 48 55 54 54 54 55 54 56 56
49 49 53 61 63 64 69 75 74 76 72 71 70 71 73 74 74 77 79 79 76 72 65 61 56 48 48 50 54 49 54 54 49 57 60 61 59 59 53 56 58 58 56 55 55 57 59 58 58
42 45 47 49 55 59 65 67 67 67 68 74 78 80 77 73 72 76 74 67 62 53 45 43 46 46 51 52 58 58 61 52 53 56 60 63 59 56 57 61 65 65 64 62 61 61 63 62 63
42 43 44 46 49 53 57 64 69 69 68 65 64 66 66 67 63 59 54 51 46 47 46 43 40 48 53 55 57 58 59 57 58 60 63 61 60 60 61 65 66 65 66 69 69 69 66 68 68
39 41 46 46 45 46 49 52 52 52 54 55 54 53 48 45 42 40 39 43 48 49 42 41 42 47 48 52 54 55 56 60 63 66 67 63 63 64 68 71 71 70 70 73 76 75 74 76 76
32 38 41 42 44 42 41 45 42 42 42 40 39 41 41 40 39 41 43 45 47 44 41 40 46 47 48 52 56 58 61 63 67 68 63 65 68 72 73 74 75 77 79 80 80 80 82 84 83
27 31 33 30 33 31 30 35 33 32 34 35 35 38 40 41 42 41 43 46 47 45 44 45 46 50 53 54 57 60 65 68 69 65 67 70 74 77 79 82 86 87 88 88 89 90 90 93 94
18 24 29 27 31 28 30 33 34 33 30 32 36 40 42 41 41 41 42 42 42 42 42 43 48 52 53 57 61 65 68 67 68 71 75 79 82 84 87 92 93 92 91 93 95 98 101 104 106
22 26 26 27 26 24 24 21 23 22 26 31 33 36 36 38 39 39 38 39 42 42 45 48 52 55 58 61 64 64 65 68 70 74 79 83 86 90 94 97 98 100 101 105 108 111 114 115 116
16 17 18 20 22 25 22 19 20 25 28 29 32 37 40 40 45 44 43 41 43 46 50 53 55 57 59 60 61 62 65 69 74 79 85 91 94 98 100 103 106 109 113 117 120 125 128 129 129
16 18 20 22 24 23 20 18 19 27 29 31 36 37 37 39 42 43 45 46 48 50 52 55 57 57 58 62 64 68 73 76 80 86 91 96 100 105 109 112 115 119 125 129 133 134 135 136 133
13 15 16 18 20 15 15 13 15 17 22 24 26 26 28 30 33 37 40 44 48 54 57 56 56 58 62 65 69 73 77 82 87 92 97 102 106 109 115 119 123 128 133 138 137 136 135 133 130
2 3 4 5 6 7 11 14 16 17 18 16 21 26 31 34 39 39 41 46 48 53 56 59 62 66 70 72 75 79 82 86 90 95 102 107 113 118 122 125 129 136 140 134 131 130 128 124 116
3 5 8 10 11 12 14 17 18 21 23 25 29 33 35 37 42 43 46 49 52 55 58 61 64 66 69 73 77 82 87 92 96 103 109 115 121 126 132 135 134 132 128 126 124 118 114 108 103
6 8 10 12 13 14 15 18 20 23 26 28 31 35 38 39 43 47 47 49 52 56 59 63 65 68 73 78 82 88 94 99 105 112 116 121 127 132 134 132 128 127 125 122 115 107 105 99 94
9 11 14 18 22 24 23 24 25 27 30 34 36 39 43 42 44 47 50 54 57 60 62 64 68 74 77 82 88 94 102 110 114 117 123 128 131 130 126 124 123 119 117 109 102 97 93 91 88
15 17 19 21 25 29 29 30 34 36 38 41 44 44 45 46 48 50 52 54 56 60 63 67 72 78 83 88 96 101 108 114 119 123 127 130 128 127 124 121 117 112 106 99 94 90 87 82 78

GFSSGP_250_spd_003.txt.gz
Wind_Speed
91 90 93 91 87 88 88 87 82 76 77 79 78 81 84 88 88 89 85 84 82 80 81 84 87 88 88 90 93 95 97 97 95 102 103 103 104 100 97 100 100 101 97 78 78 67 55 44 42
91 89 92 92 87 89 88 82 83 78 76 78 78 78 81 82 86 86 82 81 79 80 83 84 86 89 92 94 96 99 97 99 103 100 100 102 97 97 102 103 100 93 77 69 62 55 44 43 38
91 86 88 94 95 91 90 84 81 78 75 71 74 81 80 82 86 84 83 80 81 81 84 89 89 92 95 97 98 99 100 96 96 100 98 96 96 100 100 99 87 72 69 62 54 44 42 42 42
86 77 82 89 93 97 94 85 83 78 71 71 70 74 81 81 82 82 82 82 79 81 84 89 91 90 89 91 89 91 91 94 98 94 95 96 97 100 97 85 68 67 59 52 47 46 45 43 41
73 70 78 82 88 91 92 86 84 83 71 59 69 74 73 72 81 82 80 82 84 90 90 87 89 93 91 84 88 90 94 95 95 94 96 95 99 98 78 67 60 53 50 47 47 43 44 45 47
64 65 71 77 80 88 91 84 83 84 85 82 72 71 73 76 71 76 76 72 75 78 82 85 89 85 81 86 86 92 93 94 95 95 93 97 90 75 65 58 52 48 45 45 47 51 53 53 53
57 61 67 72 76 84 87 86 82 75 78 84 79 77 77 75 71 72 73 73 78 83 91 84 82 86 90 93 89 92 93 93 93 92 89 84 65 59 55 51 49 48 49 48 50 55 58 57 56
58 60 65 66 72 78 76 81 75 78 80 80 77 82 81 82 80 83 85 84 82 83 84 83 85 87 88 92 90 93 96 94 91 87 83 59 58 54 47 50 48 50 49 50 55 58 57 56 53
55 57 64 65 71 72 73 76 74 77 80 82 81 78 80 85 85 85 84 85 84 85 88 87 87 87 89 90 91 89 93 90 88 80 69 62 53 51 50 53 53 51 53 55 56 55 54 51 45
52 53 58 63 66 68 74 79 72 78 77 77 82 79 77 77 80 82 83 83 84 84 84 86 87 86 88 89 89 88 83 80 79 70 63 54 56 56 53 48 47 52 56 52 46 44 46 46 47
52 56 56 57 67 73 75 74 72 73 78 76 77 83 83 85 84 81 87 89 86 83 81 81 84 88 88 83 85 77 78 79 66 59 57 60 57 53 47 49 53 56 52 51 50 49 50 48 47
48 52 63 64 66 72 77 83 77 74 78 78 74 73 79 77 78 79 72 75 78 76 77 83 78 80 83 76 74 79 70 62 61 58 62 58 58 55 55 51 56 56 55 54 52 46 51 54 52
38 49 56 63 67 69 69 73 80 82 79 78 81 82 77 74 75 75 79 80 75 72 77 81 83 80 85 80 74 65 53 55 57 59 58 58 58 59 59 59 59 61 61 54 53 54 57 57 57
38 40 46 56 61 67 70 71 69 72 74 70 73 72 72 78 84 77 67 70 74 74 76 81 81 82 78 76 64 60 53 56 60 60 62 61 63 64 61 60 60 60 59 56 56 56 57 58 59
35 33 39 45 49 53 59 65 70 70 72 72 62 63 63 68 73 77 78 76 75 81 78 76 75 73 63 57 55 58 57 56 60 62 64 64 62 62 62 64 65 64 61 59 59 60 61 60 62
34 35 34 37 41 45 47 49 57 60 67 68 70 72 73 76 73 72 73 77 79 79 79 75 65 48 41 36 40 49 59 60 63 63 62 63 64 63 68 71 69 68 62 61 64 65 65 65 65
36 35 36 37 39 41 44 44 48 54 58 61 62 63 65 68 68 66 61 59 58 55 54 49 36 32 33 43 55 64 68 67 66 65 64 64 65 69 72 72 72 68 67 68 69 70 70 69 70
33 36 38 40 38 37 39 40 41 42 44 46 50 52 54 54 52 49 46 48 47 47 45 40 37 37 45 56 68 73 72 71 74 71 70 70 71 72 74 74 71 72 73 73 75 76 78 80 81
35 36 36 35 33 37 38 39 38 41 42 41 42 42 42 40 41 43 44 44 46 47 47 41 42 48 53 61 67 70 74 77 77 74 74 75 77 78 76 75 75 76 77 79 80 82 85 89 90
31 30 28 25 27 30 34 33 31 32 33 34 36 37 40 41 43 45 45 46 48 47 48 52 54 54 56 63 69 73 75 74 76 77 77 78 77 77 77 79 80 82 86 89 90 92 93 95 97
23 23 21 20 22 25 24 26 26 29 32 36 36 37 38 40 40 43 46 49 51 49 50 52 53 53 55 58 62 65 69 73 75 75 76 78 79 80 82 86 88 91 94 98 101 103 105 106 108
20 21 18 18 19 20 22 23 24 28 31 32 32 31 31 33 35 41 44 46 46 46 46 50 50 49 53 57 61 65 70 72 73 75 79 81 82 85 88 93 96 101 105 109 112 115 118 120 122
19 20 20 17 17 15 15 16 20 23 26 28 32 35 36 38 42 43 44 43 44 45 49 47 49 53 58 61 65 67 69 72 75 78 80 83 86 90 96 101 106 109 112 118 122 126 128 129 130
16 16 17 17 15 11 12 12 17 21 25 30 33 36 37 36 36 38 39 37 37 44 49 50 53 57 61 63 66 69 71 73 76 78 83 89 96 101 103 109 114 118 122 125 129 129 130 130 129
12 10 9 6 3 6 9 11 12 14 17 20 23 26 28 31 33 37 40 40 45 49 52 55 57 59 62 66 69 71 74 77 81 85 89 94 99 103 109 115 118 123 128 130 130 131 129 129 128
2 3 3 3 1 2 4 8 11 13 16 18 21 24 27 31 35 39 44 46 48 52 54 56 58 61 65 68 71 72 75 78 83 87 92 99 103 109 115 122 126 130 131 130 129 125 124 122 121
5 2 2 3 4 7 10 13 15 17 21 24 27 28 30 34 37 41 44 47 49 52 57 60 63 65 67 69 71 75 78 81 86 93 98 104 110 116 122 126 128 128 131 125 122 121 119 114 106
2 4 5 8 11 14 16 17 20 23 25 27 30 34 36 39 42 44 47 50 52 54 58 60 62 64 66 68 72 77 81 86 92 99 105 109 116 121 125 127 127 124 123 122 119 111 105 100 93
5 8 10 12 14 17 19 21 22 24 29 33 36 39 41 44 45 47 48 51 54 56 59 61 63 65 67 71 74 79 85 93 100 105 111 118 120 124 129 127 124 119 118 117 110 103 96 92 86
8 11 14 16 17 20 22 25 27 29 33 38 41 45 47 49 51 52 53 54 56 59 61 62 64 66 70 74 80 86 94 100 108 115 121 123 127 126 125 120 119 120 113 107 101 95 89 83 78

GFSSGP_250_spd_006.txt.gz
Wind_Speed
102 100 99 96 94 93 89 86 87 86 84 83 83 83 82 84 82 79 80 86 84 82 81 83 82 86 87 92 95 95 91 91 97 97 98 97 98 93 91 93 97 96 93 100 91 85 77 69 64
102 104 99 98 93 90 84 85 85 85 87 83 81 80 82 81 81 78 82 86 87 83 82 85 87 79 91 89 94 91 92 94 96 94 94 96 94 93 93 98 95 95 97 94 82 73 66 60 52
101 99 98 91 89 87 84 86 83 76 86 80 79 74 69 81 81 78 82 82 83 79 82 81 83 84 89 92 90 90 92 94 91 96 96 92 92 95 99 99 97 91 91 84 73 64 61 57 49
91 92 85 91 88 83 84 83 84 84 81 78 75 76 77 73 78 85 80 79 79 79 78 80 75 82 85 89 92 89 88 91 98 91 93 92 95 101 99 99 90 88 86 70 68 61 57 53 46
82 82 78 74 76 78 77 78 86 91 87 79 78 78 76 75 76 78 78 70 66 71 76 80 84 85 91 90 79 85 89 95 87 89 92 93 98 98 95 92 93 89 74 65 58 55 55 47 45
73 74 67 67 68 71 74 77 82 87 91 90 86 83 86 82 75 72 75 76 76 74 75 73 81 82 82 84 83 86 90 88 89 89 93 92 96 96 93 89 84 77 69 59 57 53 52 47 50
65 63 64 64 62 66 69 73 78 82 90 91 91 82 84 81 80 75 69 67 74 75 79 80 80 80 80 84 83 89 91 91 88 88 94 98 96 94 85 83 75 70 63 64 58 53 50 49 53
54 56 55 55 58 63 63 69 75 76 83 84 80 79 73 73 77 79 80 78 75 74 76 79 78 84 82 86 92 92 91 85 88 92 95 97 86 81 79 73 67 61 64 59 51 46 49 51 51
46 48 50 52 57 57 64 69 72 74 76 79 70 74 70 72 75 74 72 74 76 79 80 79 81 85 87 87 87 82 83 85 94 88 86 87 78 78 70 65 70 65 63 54 52 49 48 47 48
42 45 47 48 50 55 59 67 69 59 70 71 76 74 75 75 76 79 79 78 79 78 79 79 80 83 87 82 84 87 88 89 87 89 87 73 76 69 65 65 64 64 60 53 50 50 53 51 52
40 42 43 45 49 52 55 64 64 68 61 67 68 67 76 77 78 76 77 75 79 79 82 82 85 79 78 80 84 84 81 86 81 80 71 70 69 66 71 62 59 62 58 59 57 52 50 54 54
36 39 40 47 47 46 52 57 60 65 64 61 69 67 64 55 65 69 74 73 74 82 81 81 79 79 77 82 81 82 83 77 72 66 63 62 65 65 67 65 63 61 63 59 56 56 57 55 53
32 36 41 42 47 50 49 52 58 62 60 65 64 64 69 68 69 75 79 80 76 74 78 73 78 80 77 81 79 76 70 70 64 63 61 60 59 62 64 65 65 64 61 61 60 61 64 62 57
29 29 32 39 46 46 51 52 50 61 69 67 71 73 70 72 70 71 77 81 79 78 73 74 77 81 80 80 70 66 62 65 62 55 52 52 56 61 67 68 66 65 66 66 66 69 70 67 62
29 27 27 30 35 41 47 48 55 52 56 65 71 74 75 79 76 72 71 74 74 73 77 84 82 79 75 63 58 59 60 62 55 46 45 55 63 69 67 69 70 72 72 71 72 72 72 71 66
29 26 28 27 27 29 35 39 47 53 54 53 60 65 67 60 63 69 70 73 78 79 81 76 71 66 57 45 35 38 56 60 63 61 64 64 72 73 71 75 78 77 75 74 75 76 77 75 71
20 24 26 28 30 30 30 33 36 39 44 46 47 49 54 59 64 68 68 68 67 66 63 60 53 47 37 42 38 53 58 60 64 72 72 74 79 79 79 83 82 81 79 81 83 81 78 76 74
22 24 28 30 33 34 34 35 35 35 37 39 43 44 46 48 50 51 53 52 51 50 48 47 41 38 39 47 54 62 62 70 75 76 80 83 84 85 86 86 84 83 85 84 82 81 80 79 78
26 26 28 31 31 33 35 36 38 39 40 41 44 43 43 42 41 41 42 42 45 45 46 44 34 45 52 54 59 62 67 73 77 81 85 87 87 85 83 83 84 84 82 84 84 86 87 90 89
22 21 25 30 32 32 33 36 35 34 33 34 35 35 34 34 37 39 39 42 44 44 43 44 49 54 58 60 65 69 71 72 74 77 80 80 81 82 84 85 84 86 88 89 89 90 92 95 96
19 22 26 26 25 23 23 24 25 27 28 29 28 30 32 33 35 37 38 39 40 42 46 51 54 56 58 60 62 65 67 69 72 74 76 79 81 84 85 86 89 91 92 93 95 96 97 102 108
15 17 17 19 17 18 18 19 23 25 28 27 26 27 26 30 32 35 39 40 43 45 47 49 51 53 56 56 58 60 63 67 71 74 77 80 84 87 89 90 91 94 95 98 101 106 111 113 116
17 14 11 10 11 13 14 16 19 23 25 23 25 27 28 29 28 28 34 35 36 38 41 45 47 50 53 56 60 62 65 70 73 76 78 80 83 84 86 89 93 98 103 107 110 116 120 122 127
9 8 8 7 8 12 16 17 23 22 23 24 24 22 21 22 25 28 32 33 36 40 43 47 50 53 56 59 62 65 67 69 72 75 76 78 82 86 91 95 100 105 110 112 119 124 128 130 135
7 8 9 10 13 18 21 23 22 19 17 18 21 23 24 25 29 31 33 38 41 46 49 51 54 56 58 60 62 64 67 69 71 75 79 82 85 91 95 102 107 112 117 120 126 130 131 126 125
7 7 8 8 7 6 6 8 12 16 19 22 24 26 28 31 34 39 42 45 48 50 52 53 55 57 59 62 63 66 69 71 74 78 82 86 91 97 103 109 114 119 121 123 127 124 120 119 115
10 8 6 6 7 7 7 10 13 17 21 24 27 30 33 37 41 44 47 50 53 56 59 61 62 63 63 65 67 68 69 71 75 81 87 93 100 105 110 112 116 118 117 119 118 116 111 112 109
5 3 2 3 6 8 11 14 17 21 23 26 29 33 37 40 44 49 52 55 57 59 62 63 63 63 63 64 64 65 69 75 81 88 94 100 104 106 111 112 114 117 116 114 114 114 108 102 96
2 3 4 7 9 12 14 14 16 20 23 28 33 39 43 47 50 52 52 54 57 60 62 62 61 60 61 63 64 69 76 82 88 93 100 106 109 116 116 117 117 114 117 116 113 105 100 94 90
6 6 8 10 12 15 17 18 22 25 30 35 40 43 47 49 51 51 52 53 55 56 57 57 58 60 62 65 70 76 81 87 93 99 108 114 118 120 122 117 117 117 116 110 102 97 93 90 85

GFSSGP_250_spd_009.txt.gz
Wind_Speed
105 103 103 102 101 97 99 99 91 87 86 84 83 82 81 82 82 82 79 82 86 88 86 87 82 82 83 83 81 81 84 88 84 88 86 87 87 93 82 90 91 87 86 92 93 90 87 82 81
108 105 106 105 104 96 97 94 92 86 84 81 81 81 80 80 82 83 77 80 85 87 84 82 82 83 84 82 80 80 81 80 81 81 88 87 89 84 90 91 86 88 92 93 95 87 87 80 72
103 103 104 103 101 99 94 93 90 87 80 80 84 80 78 81 79 80 84 80 82 84 84 84 83 76 70 70 71 81 80 82 84 87 90 92 86 88 85 88 91 94 98 92 90 87 80 73 63
89 97 99 99 96 93 91 88 86 82 77 79 79 78 80 76 78 81 81 83 73 79 80 79 75 69 74 70 75 81 82 81 87 89 91 85 86 87 91 89 91 94 96 91 83 83 75 67 65
78 80 84 84 84 85 83 85 83 76 77 76 80 78 75 69 64 72 77 73 72 62 64 72 72 73 71 76 81 85 85 91 91 87 81 88 88 87 84 94 95 100 88 84 76 74 66 60 57
59 63 65 64 65 74 74 76 69 69 75 75 79 77 81 73 70 72 71 72 70 63 68 69 69 74 80 80 82 85 86 81 78 84 86 81 82 87 94 99 96 90 84 81 74 65 65 56 51
49 48 51 54 57 63 58 58 60 65 72 75 79 82 90 87 83 79 75 77 75 79 71 73 76 77 82 78 81 82 79 83 84 83 87 84 96 97 97 90 89 88 76 71 69 67 60 56 54
41 43 47 49 51 50 53 57 63 66 70 72 75 76 60 83 94 93 90 81 80 82 81 76 76 78 83 80 82 79 81 81 82 91 90 93 91 84 87 82 81 78 68 70 62 61 59 55 45
38 43 47 47 47 50 54 57 64 67 67 65 69 67 61 53 63 58 73 75 75 73 76 80 81 81 76 72 75 74 73 83 90 88 85 83 80 81 79 73 73 68 64 61 58 56 56 53 47
37 36 38 40 38 41 46 51 56 56 62 61 62 69 68 62 61 67 70 65 70 69 65 62 67 72 71 80 83 83 87 85 82 86 86 84 83 79 73 74 71 68 64 54 54 54 54 50 46
31 32 33 35 37 40 41 43 47 52 55 59 57 64 67 57 62 57 64 67 68 66 71 74 70 76 80 79 79 85 79 84 86 86 84 83 80 77 70 72 71 62 56 54 57 56 53 48 47
26 27 32 33 33 36 41 40 41 41 48 53 56 59 55 62 67 66 63 64 65 67 72 72 81 83 85 85 83 82 82 84 84 83 77 72 68 72 75 65 62 55 56 60 62 62 59 59 58
29 29 32 32 31 34 39 41 41 43 45 49 54 55 55 53 56 61 65 64 58 60 60 64 65 69 72 77 79 84 87 83 83 72 70 70 71 60 55 57 58 57 66 65 69 71 69 70 67
29 29 29 30 31 34 36 37 39 41 36 43 47 49 56 60 60 58 64 66 65 68 73 73 75 75 75 76 79 78 78 70 62 64 69 69 69 69 61 70 65 71 72 73 78 78 78 79 77
27 29 27 23 23 27 31 32 33 34 36 41 39 43 52 58 60 63 66 69 70 73 74 69 69 76 82 78 68 67 60 56 42 50 56 63 73 77 75 68 72 80 82 81 83 85 86 85 81
24 25 25 24 21 22 23 24 27 29 35 38 39 43 44 43 47 56 65 67 67 66 65 65 68 67 63 59 55 46 48 45 44 56 65 71 73 76 76 76 81 85 86 88 90 91 85 79 77
22 24 25 24 23 24 25 24 25 26 26 27 33 38 43 45 51 50 53 56 58 59 59 60 56 52 50 50 43 49 48 55 57 59 64 70 73 79 81 87 88 89 91 92 91 85 82 80 79
20 22 20 24 29 28 28 27 28 29 30 32 34 35 35 37 39 42 45 46 48 47 46 46 48 49 50 51 54 56 57 61 63 67 73 78 83 87 89 90 88 85 84 84 84 84 83 84 85
21 23 24 26 27 25 26 28 31 32 34 34 34 35 38 39 39 40 39 38 40 40 41 43 43 46 43 48 53 56 59 62 66 71 76 79 82 85 85 84 84 84 83 85 86 87 88 89 89
24 24 24 26 26 25 26 29 31 32 34 36 37 36 33 34 35 34 32 34 37 40 39 42 43 45 47 50 54 59 64 68 71 74 77 79 80 81 81 82 84 85 85 86 88 89 88 88 89
22 22 21 21 21 22 25 27 27 28 29 28 25 26 27 27 27 28 29 31 33 36 39 41 45 49 52 56 59 62 64 66 67 69 71 73 77 79 80 81 83 85 87 87 88 89 93 97 101
20 19 20 21 20 20 20 20 19 20 20 19 18 19 19 19 22 24 27 31 35 38 41 43 45 46 47 49 53 57 60 63 65 68 71 73 75 77 79 80 82 84 86 87 92 98 103 107 111
19 19 16 14 12 15 16 20 23 22 19 17 16 16 16 21 23 23 25 28 32 35 38 41 43 45 47 51 54 58 62 64 67 69 71 73 74 76 78 80 81 86 91 96 101 107 109 110 112
17 12 12 13 16 17 16 16 19 15 14 14 13 15 18 21 25 28 30 32 35 39 42 46 49 52 54 57 60 62 65 66 68 69 70 72 73 72 75 81 86 93 98 103 109 111 113 113 115
14 16 15 12 12 15 15 16 16 14 10 10 14 18 22 25 29 32 35 39 42 46 49 53 56 58 60 61 63 65 67 68 69 69 69 69 72 78 83 87 92 99 103 112 112 113 117 116 113
9 8 7 6 4 5 3 4 5 8 11 13 16 20 24 28 31 34 39 42 44 47 50 53 55 58 60 61 63 64 63 64 65 68 71 75 80 85 90 93 100 104 112 116 116 113 112 108 107
12 12 10 7 3 1 3 6 8 11 13 16 19 22 24 28 33 37 41 43 46 49 51 53 54 56 57 57 60 62 65 67 70 73 76 81 86 89 94 101 106 110 116 116 110 110 110 105 102
14 11 7 6 6 6 8 10 12 13 15 17 20 25 29 34 40 42 43 45 48 50 52 54 55 56 58 59 60 63 65 67 71 76 80 85 89 94 101 104 110 115 114 110 112 110 104 99 96
9 7 6 6 6 6 8 12 14 17 20 22 24 30 34 39 42 45 47 50 51 53 56 59 59 60 61 62 62 64 66 70 75 80 84 89 93 99 107 110 112 115 113 115 111 104 99 93 90
6 4 6 7 7 9 13 15 18 20 23 26 30 34 37 41 46 49 47 47 49 53 57 61 59 59 61 62 64 67 70 75 81 83 87 93 99 107 110 113 113 114 116 113 105 98 92 88 84

GFSSGP_250_spd_012.txt.gz
Wind_Speed
97 98 102 102 102 103 101 101 98 95 92 92 88 89 86 83 84 83 82 81 82 82 84 84 84 84 83 84 83 83 82 83 80 79 78 81 80 80 85 84 82 84 79 78 83 82 79 87 87
102 101 104 104 103 103 106 101 98 94 94 94 91 87 86 83 83 78 79 80 79 81 84 80 84 84 83 82 81 79 81 85 81 79 78 73 76 81 82 83 86 81 79 81 80 84 88 87 80
104 104 106 105 106 107 106 102 96 95 94 94 92 86 82 81 80 79 77 81 72 76 81 85 81 77 78 78 79 80 80 77 73 70 74 75 80 83 82 84 79 79 82 83 87 88 88 81 76
103 106 104 104 104 107 104 104 99 97 92 93 89 86 77 78 77 76 77 74 81 78 81 81 79 81 74 69 78 67 69 67 72 80 80 81 85 83 81 76 81 83 92 84 91 86 84 79 66
85 93 91 95 96 95 99 98 98 96 95 94 90 84 80 73 77 73 77 77 73 61 62 72 65 64 62 64 71 72 74 79 79 77 83 80 82 81 80 81 83 91 86 88 84 82 76 72 74
66 69 64 68 68 77 81 83 84 83 88 90 83 75 72 68 73 72 70 81 67 78 80 72 69 62 64 63 61 71 71 70 77 80 83 81 75 76 77 82 85 90 80 79 86 80 73 65 60
53 51 49 47 51 57 59 63 65 64 70 71 73 69 66 68 71 74 72 77 79 78 62 63 67 63 79 67 73 74 77 82 78 86 79 73 77 80 80 81 86 85 82 91 79 76 64 67 60
41 40 40 40 41 44 48 53 54 57 55 62 64 61 67 68 70 72 69 64 59 62 65 73 70 64 71 75 71 76 74 76 72 66 74 69 79 82 90 84 85 85 89 85 77 70 67 57 49
39 35 36 38 40 42 46 48 50 52 54 56 59 62 68 63 67 71 68 59 63 70 67 70 72 76 81 71 75 80 77 74 77 74 76 83 82 87 86 83 87 90 86 75 74 66 57 50 44
33 34 37 40 41 43 43 46 49 48 50 51 57 59 56 60 58 53 59 58 62 65 79 80 75 65 65 69 68 62 67 68 71 75 84 86 85 85 87 92 89 85 76 73 77 54 54 48 50
30 33 34 35 33 37 39 41 41 41 43 49 51 49 54 48 51 54 55 62 63 65 67 70 78 79 70 68 67 70 68 72 78 79 79 86 87 89 97 92 87 87 80 74 60 58 56 56 55
29 31 29 30 29 33 32 35 37 38 39 39 43 45 47 44 53 57 53 57 58 55 54 51 51 57 60 61 65 65 69 75 79 82 86 86 88 94 90 85 79 76 65 62 64 63 65 66 66
28 27 26 28 31 30 28 27 28 35 36 36 33 38 42 49 49 53 52 62 65 64 65 66 67 62 62 63 64 70 77 77 77 83 86 90 88 82 84 75 73 64 64 65 67 66 68 73 75
27 26 25 24 26 27 26 25 25 29 32 32 31 33 38 43 46 48 50 55 57 64 65 68 67 65 67 74 80 81 85 85 85 86 83 74 73 66 74 67 70 72 72 72 73 74 79 81 85
27 26 28 28 24 26 27 28 30 28 28 32 36 33 31 33 40 49 53 57 58 61 64 65 69 71 75 75 76 78 76 74 69 70 67 66 61 62 68 71 74 75 75 78 78 83 84 87 88
27 29 31 31 27 21 19 21 25 26 28 31 32 31 32 34 38 39 40 45 46 49 53 55 59 60 65 63 61 50 48 55 59 59 59 59 58 63 68 72 76 82 83 84 90 90 89 84 82
29 30 30 29 27 26 23 22 25 24 24 25 26 28 30 32 37 40 42 44 46 48 53 52 52 54 52 50 51 45 51 56 46 52 53 58 66 69 73 78 83 84 87 91 91 87 84 82 81
27 22 25 28 29 29 25 25 24 24 25 27 26 26 29 31 33 35 38 42 43 44 45 48 47 46 45 46 46 49 53 55 57 62 68 71 75 78 81 85 87 87 87 86 84 83 84 85 83
24 25 26 27 26 25 27 28 28 27 28 29 30 30 31 33 35 36 39 41 42 42 42 43 43 42 42 43 48 52 55 56 60 65 67 71 74 78 81 80 81 82 83 85 85 85 85 84 80
27 25 24 24 24 24 25 27 27 28 29 29 30 31 32 34 35 36 35 34 35 36 36 37 39 41 43 46 48 52 56 59 62 63 64 67 70 73 76 80 82 84 85 84 85 85 85 83 79
24 23 23 23 25 26 27 27 26 25 24 25 28 29 29 29 27 27 28 29 30 32 34 37 39 41 44 46 48 51 54 57 60 64 67 71 73 76 78 81 83 84 84 84 82 80 81 87 91
25 23 23 23 22 22 22 23 23 23 21 22 21 19 21 20 22 22 23 26 29 31 32 35 38 41 44 47 51 55 58 61 65 68 71 73 76 78 80 81 81 82 82 81 80 85 90 92 98
23 22 21 19 18 22 23 21 21 18 15 13 13 16 17 16 16 17 19 22 25 29 33 37 42 46 50 53 57 60 64 67 70 72 74 75 75 74 73 73 73 76 79 83 89 92 95 99 105
22 21 20 21 21 22 20 19 17 11 12 12 13 11 9 10 13 18 23 27 31 35 37 41 45 49 53 56 60 62 65 66 67 68 68 67 66 67 69 71 76 80 85 90 93 97 102 106 112
18 19 19 18 17 16 14 14 11 10 8 4 6 8 12 16 20 23 25 29 32 35 38 41 44 46 47 49 51 55 58 61 63 65 66 68 69 72 75 79 83 87 90 93 96 102 107 114 117
20 18 16 15 15 10 7 6 3 1 3 7 10 13 16 17 20 22 27 31 34 37 40 43 44 47 48 51 56 59 61 63 65 68 69 71 72 75 78 83 86 90 94 97 103 109 112 114 114
19 16 15 14 12 8 5 3 3 6 8 11 13 14 16 19 24 28 30 34 37 38 41 46 49 52 54 55 59 61 62 63 64 66 68 70 73 77 82 86 93 96 101 106 109 112 114 111 108
13 13 12 9 7 5 5 5 7 10 12 14 15 17 21 25 29 32 34 38 40 43 46 50 53 57 59 61 64 66 67 66 65 67 69 72 77 83 88 93 96 102 107 111 112 110 107 106 102
16 13 10 9 8 7 7 9 11 14 17 18 21 24 27 30 33 34 39 43 47 50 54 58 61 63 64 66 68 71 72 70 69 72 75 79 84 90 94 99 102 107 110 110 109 106 107 106 100
15 12 10 9 9 10 12 12 13 16 20 24 28 30 32 34 37 38 43 48 52 55 60 64 68 71 70 70 71 73 74 72 74 78 81 85 92 97 99 103 106 108 108 107 110 110 104 97 91

GFSSGP_250_spd_015.txt.gz
Wind_Speed
101 101 104 102 104 104 105 106 103 99 98 95 95 97 94 87 82 76 72 71 74 77 80 78 79 82 81 79 80 82 84 82 80 81 84 83 80 82 82 80 78 75 76 81 83 83 80 78 80
102 105 103 103 104 107 105 106 104 98 96 94 95 96 93 91 86 86 80 78 75 76 77 80 79 82 83 78 79 71 72 75 77 77 81 79 76 75 71 73 74 80 81 82 78 78 76 80 86
106 107 107 104 101 103 105 104 99 97 95 91 94 94 91 91 89 86 78 74 74 75 75 77 82 85 81 83 80 74 75 71 74 72 72 72 71 72 72 79 81 81 81 82 82 82 81 84 86
95 103 108 108 104 106 98 104 96 92 91 89 89 91 89 88 89 85 79 69 52 57 70 81 80 87 83 82 83 76 77 68 64 60 70 71 72 76 76 75 77 81 87 81 82 78 84 82 79
84 95 98 101 100 104 100 95 93 93 80 86 89 90 90 87 89 78 74 71 43 48 64 73 78 87 81 75 64 65 67 71 71 74 69 65 70 72 71 80 78 80 77 74 71 79 84 77 82
78 80 86 91 101 92 86 94 89 78 74 80 86 86 84 86 86 69 69 60 48 50 57 60 62 51 51 57 65 69 75 69 62 60 67 70 76 75 76 67 75 80 70 77 83 85 77 80 86
64 70 77 79 83 83 75 80 72 79 75 80 76 88 84 81 75 63 48 46 42 46 46 47 50 54 61 72 75 73 68 65 74 75 74 69 69 77 83 83 80 75 72 80 81 80 83 85 82
52 54 58 63 53 35 57 54 57 58 56 50 44 55 61 60 57 53 45 39 39 55 63 58 63 60 65 72 74 69 77 69 75 69 71 80 85 83 81 72 77 75 76 84 82 84 87 80 71
39 38 40 41 34 38 48 45 46 50 50 46 42 46 54 55 51 55 50 55 57 69 72 72 75 76 74 75 73 73 77 77 78 77 83 80 79 75 72 76 78 81 82 84 88 90 78 77 63
35 34 33 28 15 38 42 43 38 44 44 47 61 54 49 50 48 48 53 61 64 68 74 74 72 78 78 71 76 75 83 81 75 77 79 80 76 73 79 80 84 84 85 86 88 81 73 60 52
32 34 29 31 38 43 39 37 34 33 21 41 44 47 52 54 43 49 49 55 67 69 75 77 77 76 75 77 79 71 75 84 79 79 80 79 78 79 83 88 90 87 87 85 75 69 63 56 56
29 26 30 28 29 31 27 26 28 25 22 26 32 40 42 48 48 48 54 52 60 72 77 73 75 75 79 83 85 74 72 70 70 71 75 80 84 89 91 92 89 83 77 68 70 61 64 62 62
26 28 24 30 32 31 25 20 29 31 46 48 31 45 43 43 41 40 44 46 52 60 64 66 72 74 66 62 61 61 68 72 75 81 85 89 92 91 89 84 80 79 74 68 69 66 67 68 69
26 28 28 29 32 30 27 28 27 28 35 48 47 39 36 32 36 38 46 49 51 55 59 61 66 69 70 74 76 77 79 84 88 90 87 87 78 73 73 71 71 72 70 70 69 70 73 73 78
28 27 29 26 27 22 24 25 23 23 27 28 30 33 30 30 28 32 40 52 54 53 55 63 68 73 77 72 74 78 82 79 79 81 72 74 78 72 63 65 66 62 62 69 75 80 82 80 84
32 31 28 29 27 22 21 27 30 32 32 31 30 30 29 34 36 35 35 38 44 54 59 62 65 69 71 69 65 66 66 66 64 64 56 57 60 57 59 60 71 70 74 76 82 86 87 92 89
32 32 31 30 28 28 25 24 25 28 28 30 30 31 33 33 33 36 40 42 44 46 47 51 54 54 55 57 60 62 64 63 61 61 65 66 66 66 72 74 75 80 83 86 88 89 87 84 85
32 30 27 29 31 33 31 29 27 27 26 28 29 28 29 35 37 36 39 40 41 43 46 49 49 51 54 57 59 62 63 64 62 62 62 65 67 71 73 74 78 81 79 78 80 80 84 85 84
29 29 30 27 27 28 32 32 31 28 28 28 27 29 30 33 34 33 35 37 40 42 43 47 48 50 52 54 53 54 53 55 56 58 60 63 64 67 68 70 73 77 82 82 84 86 88 89 90
27 27 26 26 27 28 31 32 31 30 29 29 29 32 33 34 35 36 38 39 40 42 43 44 46 44 43 43 44 46 47 49 51 55 59 63 67 70 74 78 81 83 86 88 89 90 89 88 86
27 27 26 25 25 26 28 27 26 29 30 31 32 32 33 33 33 35 37 37 37 37 35 33 33 33 35 39 43 46 50 55 58 63 67 70 75 78 81 84 87 90 91 92 91 88 84 83 83
28 27 27 27 26 25 26 27 29 30 28 28 28 29 29 30 30 31 30 28 24 23 25 28 31 35 39 43 47 50 54 56 59 61 63 67 69 73 75 77 77 78 76 76 77 79 81 85 89
28 26 26 26 23 28 23 23 25 25 22 24 26 27 27 24 21 20 18 17 20 23 26 31 34 38 42 46 48 49 49 51 52 54 58 60 64 66 69 69 70 71 74 75 79 83 88 89 92
26 27 28 27 24 23 23 22 22 18 17 23 22 20 18 15 15 15 15 17 21 25 29 33 36 39 41 44 46 49 53 56 58 60 62 64 66 67 69 70 71 73 76 80 82 85 91 96 103
29 27 23 24 23 19 18 19 17 15 20 21 18 15 15 15 15 14 15 19 23 27 31 33 35 38 41 45 49 51 55 58 59 62 64 68 69 70 70 71 75 78 81 83 89 94 101 106 111
23 21 22 20 19 17 16 19 14 19 20 17 16 14 13 14 14 15 19 23 28 30 34 37 41 45 48 52 56 59 63 66 68 69 71 73 74 74 74 76 80 83 88 92 98 104 108 109 108
19 18 19 19 16 14 13 11 11 12 13 12 12 13 14 16 17 21 24 28 33 35 38 43 46 49 52 56 62 67 71 73 75 75 76 77 77 76 77 81 84 89 95 100 106 108 108 110 109
19 17 16 16 14 14 14 14 12 11 11 12 15 17 19 22 25 28 31 33 37 39 43 48 51 54 58 62 65 69 73 75 77 76 78 78 78 80 83 88 92 97 102 107 109 110 112 110 105
19 19 18 17 17 17 15 12 10 11 14 17 20 23 26 29 34 37 38 41 43 43 48 53 56 60 63 65 69 74 78 76 78 80 80 82 83 86 90 96 100 105 109 111 111 113 111 106 106
20 18 17 16 15 13 12 12 14 16 18 19 22 27 31 34 37 42 44 45 47 50 54 58 62 66 70 73 75 78 81 80 83 82 83 86 88 93 98 103 107 109 111 113 110 108 109 110 107

GFSSGP_250_spd_018.txt.gz
Wind_Speed
100 103 103 105 101 100 99 100 100 99 98 98 94 96 97 96 90 88 82 80 80 79 80 73 70 68 72 77 78 78 75 72 74 74 73 74 71 69 73 69 73 71 70 75 73 75 76 78 80
96 98 103 105 101 103 101 103 105 100 102 99 99 97 95 93 91 88 88 81 82 83 78 76 77 77 77 74 76 73 71 73 76 77 74 76 72 75 70 68 61 67 68 71 77 80 81 80 81
88 88 96 102 103 100 98 105 104 101 101 98 95 98 95 90 90 86 83 81 75 73 72 71 69 74 76 79 76 72 73 75 79 79 76 70 74 65 63 63 75 74 71 70 75 76 76 80 83
79 80 89 95 99 104 103 105 99 96 98 93 90 91 93 94 89 83 83 80 67 62 68 70 68 66 67 66 72 63 73 80 79 77 79 70 62 69 73 72 70 72 69 73 76 74 79 85 75
70 74 78 80 88 93 100 101 92 91 82 81 80 83 85 87 84 75 64 58 56 56 61 61 62 65 61 65 67 69 72 65 58 64 58 57 69 69 67 63 69 73 70 81 75 80 85 82 74
68 68 65 69 80 85 94 85 80 69 67 64 76 73 75 71 71 50 58 59 55 56 57 59 60 67 66 65 65 66 69 52 55 57 59 68 63 61 66 70 82 74 74 75 84 80 77 70 71
59 57 57 63 70 67 66 62 62 60 63 57 59 53 33 47 48 45 46 45 45 45 31 45 55 61 59 53 54 56 53 54 55 59 65 67 68 74 82 80 73 77 78 83 76 67 71 73 80
55 49 44 46 44 44 45 37 46 58 60 42 37 33 44 34 34 27 25 19 22 20 23 40 43 46 42 45 42 49 57 60 59 58 67 69 77 75 74 76 80 81 84 81 78 80 83 82 88
45 38 35 38 28 29 25 31 45 33 33 32 20 20 26 41 47 35 31 23 21 30 45 54 56 47 50 51 49 57 62 64 68 76 77 76 74 77 78 77 80 81 79 83 83 84 86 89 94
37 33 34 25 23 22 10 30 45 39 31 32 28 25 50 38 40 32 22 40 43 40 50 45 43 49 54 58 67 65 70 64 61 69 74 76 77 76 81 88 87 86 82 83 86 88 93 99 98
30 31 26 24 37 33 35 42 43 41 26 34 27 40 53 39 34 30 29 34 53 57 65 65 66 68 69 69 73 71 66 69 74 74 67 72 80 86 86 85 86 89 86 87 94 97 98 92 85
31 29 32 33 34 43 38 42 45 42 30 29 40 31 43 58 54 39 42 45 56 70 73 77 78 76 70 73 76 78 76 78 77 81 86 89 88 90 86 88 90 92 93 98 104 97 95 88 77
29 32 31 40 33 39 40 40 42 35 28 22 31 33 31 34 37 39 45 51 59 60 76 82 84 84 83 82 85 86 84 81 78 85 79 79 80 83 87 94 97 100 100 102 99 90 82 76 72
28 25 28 28 33 36 33 34 30 24 33 32 29 33 31 30 38 38 38 48 56 62 63 73 87 90 88 88 88 87 85 88 87 83 86 87 89 96 99 101 102 98 95 87 79 75 78 74 72
32 33 32 34 38 30 35 34 27 24 31 33 40 42 42 43 41 45 45 46 48 56 59 65 69 73 79 83 83 82 85 85 85 87 89 93 94 94 92 90 90 86 82 77 74 72 75 75 82
33 34 34 36 32 39 38 35 29 25 22 27 40 53 56 54 53 43 35 37 39 41 61 65 66 68 71 76 79 80 84 83 85 87 88 89 84 84 83 83 82 79 78 74 77 80 84 84 88
33 35 36 33 33 33 30 22 20 22 23 32 30 34 36 37 36 34 34 36 39 40 43 49 64 69 69 73 77 79 78 79 78 74 76 77 77 78 75 72 74 77 78 78 77 78 80 80 81
38 40 37 34 29 27 25 26 22 19 23 42 33 35 37 34 34 35 34 39 42 45 50 51 54 57 60 61 64 66 67 67 66 68 70 71 68 66 65 67 69 72 74 76 78 80 82 85 86
40 37 36 29 28 26 29 32 30 28 27 30 31 35 33 33 33 34 39 43 47 49 45 47 48 46 51 54 55 57 58 59 58 56 56 57 58 63 66 69 71 74 77 78 79 79 79 82 82
32 28 25 24 24 29 27 25 27 32 34 35 32 32 33 32 34 36 39 40 42 40 44 41 46 46 49 50 48 47 46 45 47 50 54 58 61 63 64 65 67 69 71 73 74 74 71 72 74
28 28 25 26 23 23 26 27 30 33 33 34 36 34 34 34 36 39 41 41 41 41 40 38 39 39 39 38 38 38 41 45 48 50 53 56 61 63 64 65 66 68 70 71 73 74 73 72 76
27 24 22 20 23 24 24 27 28 26 29 31 33 36 37 36 37 38 37 36 34 33 33 32 31 30 31 33 37 40 41 41 44 46 50 53 56 62 65 67 68 70 72 74 74 75 77 79 80
27 23 23 20 23 25 28 24 26 28 30 20 29 29 32 34 33 32 32 30 27 26 25 25 26 29 31 33 34 38 42 43 48 52 57 60 62 66 67 67 68 72 74 75 78 78 80 84 87
24 23 23 23 24 27 30 25 27 25 18 15 27 32 32 32 29 28 25 23 24 24 23 25 27 29 32 36 40 45 49 51 55 60 64 68 72 70 68 70 72 74 76 79 80 84 87 90 93
25 24 26 27 27 29 28 22 27 17 11 13 38 51 31 27 25 22 24 24 22 23 25 28 32 36 38 43 47 50 54 57 62 65 69 72 76 75 75 77 77 78 82 85 88 92 96 100 102
26 29 27 26 24 24 21 25 24 19 27 34 46 35 29 26 24 26 22 23 25 28 31 34 37 43 47 50 53 56 60 64 68 73 75 76 80 79 78 80 81 84 88 94 97 101 105 109 109
28 29 26 25 25 21 22 23 23 24 25 27 32 26 27 27 23 22 24 27 31 33 38 41 45 49 54 56 57 61 65 70 74 76 79 81 84 83 83 84 86 91 94 100 103 108 110 107 103
26 24 23 23 23 22 21 26 21 20 20 21 22 24 24 23 24 25 28 32 36 41 46 49 50 52 58 61 63 66 70 76 80 81 84 85 85 84 85 88 93 98 103 107 110 110 104 103 105
22 24 23 21 21 20 22 21 19 21 21 22 23 23 23 24 26 30 35 38 41 46 49 50 50 52 60 67 68 72 77 80 83 86 86 85 85 86 89 94 98 105 109 110 108 104 102 106 108
25 24 22 21 20 22 20 21 22 23 23 22 23 24 27 31 33 36 41 44 47 50 50 51 53 58 66 70 74 75 79 84 86 85 85 84 86 92 95 100 105 111 108 103 102 104 105 106 106

GFSSGP_250_spd_021.txt.gz
Wind_Speed
91 100 100 101 98 96 96 98 106 93 90 90 91 90 89 91 92 85 84 83 82 77 75 75 80 79 73 71 74 79 73 70 75 72 71 71 72 70 72 72 73 71 73 71 66 62 60 69 73
84 86 91 91 93 92 93 104 102 96 93 95 90 92 91 92 92 86 81 85 83 80 79 75 76 74 76 79 76 70 69 72 70 73 70 71 73 72 73 76 73 73 71 66 67 68 73 72 64
76 77 78 80 84 86 93 98 102 100 93 92 93 96 93 89 87 86 80 79 80 77 76 70 68 71 71 76 64 66 71 70 75 70 64 69 63 69 72 76 77 65 64 67 71 69 64 66 72
65 66 68 73 76 82 89 90 90 92 87 86 88 92 83 82 72 77 66 55 55 61 68 67 66 66 63 70 71 71 71 69 70 65 67 64 61 64 65 61 59 60 64 60 60 61 64 67 79
59 59 62 64 67 76 87 86 88 81 83 84 86 77 78 73 65 60 50 44 46 51 51 54 54 58 66 62 67 65 61 58 63 60 60 61 56 57 57 60 64 63 67 62 67 67 77 80 73
57 57 57 59 65 72 74 70 61 68 76 76 72 57 65 57 60 44 35 32 31 40 45 45 49 52 56 62 62 60 53 57 59 59 57 52 58 55 59 63 64 64 65 66 71 79 73 72 75
46 53 56 60 61 65 62 50 53 63 61 57 47 50 42 41 31 27 31 30 45 43 47 49 49 56 55 59 57 60 58 49 46 48 46 50 53 59 60 67 66 66 69 80 81 74 77 78 79
38 45 50 54 59 51 48 47 50 47 47 45 10 20 17 15 23 26 28 32 45 47 39 40 35 42 56 59 61 55 47 41 46 47 50 51 58 62 66 68 69 75 77 76 71 72 75 80 84
35 35 45 46 42 34 37 39 49 49 37 11 15 14 17 13 17 19 21 24 33 34 29 31 38 57 59 52 40 39 42 48 49 51 53 57 61 65 71 71 81 79 71 72 73 81 89 89 87
29 40 37 29 26 30 34 34 35 32 26 16 21 21 20 29 28 26 32 30 36 36 32 40 46 44 40 40 45 48 53 53 60 56 57 64 68 67 65 70 77 73 75 82 87 93 93 91 91
34 33 27 25 31 30 33 38 28 30 26 18 22 15 17 22 28 34 27 26 29 30 31 40 57 63 59 49 44 53 56 56 55 55 61 66 70 70 80 70 78 84 85 84 87 90 89 92 97
34 27 24 42 38 36 30 29 27 29 24 31 33 32 32 34 34 33 40 42 44 40 41 39 50 59 58 56 60 57 62 67 65 68 70 72 78 79 79 82 82 81 89 93 95 97 99 96 96
29 30 39 41 35 41 32 31 26 18 24 36 42 34 40 40 35 37 40 44 56 49 47 53 60 61 62 64 66 69 75 80 79 76 79 82 84 84 84 91 93 95 97 97 99 96 95 96 94
32 34 42 36 42 38 39 31 25 24 21 26 39 48 42 41 49 45 49 46 46 54 60 61 67 70 69 71 77 81 77 77 82 82 87 94 97 98 98 98 96 95 96 98 100 93 93 90 88
26 33 39 40 32 35 29 23 26 27 27 27 36 49 45 45 27 38 44 58 59 57 59 58 66 74 79 79 82 86 90 89 90 90 93 95 99 98 97 96 97 90 89 91 92 94 92 88 83
34 33 36 36 36 39 32 25 22 25 22 30 32 49 44 34 36 37 36 40 41 44 56 56 72 76 76 74 78 82 87 88 86 90 92 89 91 92 94 94 91 89 88 90 87 83 80 80 81
36 36 37 40 41 33 29 28 25 21 22 26 31 35 41 43 43 47 46 44 51 50 51 54 57 60 65 75 83 83 80 82 84 81 83 87 88 83 83 84 83 83 80 76 75 76 77 79 80
43 40 42 42 29 29 26 30 28 26 24 25 27 30 36 40 45 48 43 40 45 45 46 44 46 49 51 57 62 68 71 77 84 82 81 76 75 74 75 74 71 72 72 74 74 74 75 75 75
43 45 41 32 30 24 23 26 28 25 27 21 21 18 22 33 36 36 38 37 44 44 42 45 50 55 57 59 60 62 65 68 67 68 68 67 66 64 63 64 63 65 67 69 71 73 74 76 79
37 35 29 27 25 23 24 29 28 27 28 31 34 31 32 28 25 32 35 36 40 43 38 47 48 52 51 51 55 55 57 58 58 56 55 54 56 55 54 57 62 64 67 70 72 72 75 77 79
33 32 28 26 25 26 28 32 28 28 32 37 38 37 36 37 42 43 38 37 39 42 42 43 48 51 52 51 51 51 47 45 48 50 50 50 50 53 57 62 66 69 72 74 76 77 77 77 77
27 27 24 26 25 26 27 24 29 30 30 33 35 33 37 41 40 38 41 39 38 40 37 39 43 43 44 45 40 41 42 43 42 44 48 52 56 60 62 67 69 72 75 78 78 78 79 79 80
25 21 22 21 25 27 29 29 28 28 31 31 30 34 33 31 31 33 33 33 32 31 33 34 35 35 36 39 41 40 39 41 44 46 51 55 58 62 67 71 75 79 82 81 79 79 81 83 87
22 24 24 24 27 28 28 24 26 27 28 26 29 31 34 26 25 26 29 26 27 27 28 29 33 36 38 38 41 42 44 49 51 54 58 62 66 70 75 79 82 85 82 82 82 84 89 94 96
22 25 25 25 27 29 27 28 25 28 23 21 24 32 28 25 24 30 31 24 25 27 28 31 34 37 42 44 45 45 49 54 58 60 64 69 73 77 81 84 85 83 81 85 89 93 96 101 105
31 27 25 27 28 30 29 30 30 23 21 22 27 29 28 30 35 34 25 25 28 29 28 31 35 41 46 50 51 51 54 57 61 65 69 73 78 82 86 87 84 84 84 88 95 98 103 108 111
28 27 27 28 29 30 30 25 21 22 25 23 29 30 34 32 35 35 29 29 28 30 33 35 40 46 51 55 55 55 58 62 67 69 72 77 83 87 87 85 85 85 90 92 98 103 108 112 110
26 28 26 26 28 28 25 27 21 28 23 22 28 34 36 39 40 30 27 29 32 35 38 39 42 48 53 56 56 58 62 67 67 71 77 83 88 89 89 88 87 90 95 100 103 108 112 107 106
29 28 26 24 24 24 26 24 28 27 24 19 21 24 28 29 29 29 28 32 37 41 44 46 46 48 53 58 60 63 61 66 71 77 81 86 90 90 91 90 92 94 99 105 109 112 109 107 106
26 23 22 24 23 24 28 27 27 23 20 21 22 25 29 31 30 30 33 37 40 44 46 51 50 50 55 64 67 63 66 72 77 82 86 89 92 92 93 92 94 98 104 108 112 108 105 105 107

GFSSGP_250_spd_024.txt.gz
Wind_Speed
70 78 78 79 84 88 94 98 98 99 93 90 90 93 91 90 88 87 86 84 80 78 77 78 75 76 79 76 74 75 76 75 71 70 76 73 74 77 76 75 75 73 74 72 69 66 64 68 66
59 65 71 72 71 82 89 98 101 96 92 90 91 92 92 91 90 87 86 82 79 77 77 74 68 70 73 74 76 77 76 73 71 71 74 73 75 76 74 76 76 73 70 70 69 64 57 60 60
54 60 64 65 67 75 85 94 94 91 91 92 90 93 94 93 90 87 84 80 75 75 74 74 74 73 71 72 71 72 69 68 72 74 76 73 73 72 75 74 69 68 67 63 59 57 59 63 62
52 55 60 61 67 79 90 84 78 82 87 88 87 89 90 89 86 82 77 72 71 65 60 64 65 62 58 63 59 62 65 68 70 75 69 68 67 68 69 68 64 63 61 56 56 60 63 67 66
45 49 53 59 74 78 73 69 69 71 75 80 77 78 80 79 76 76 68 58 56 59 50 48 52 53 58 58 59 58 63 67 67 66 60 61 59 62 62 64 59 53 54 55 58 62 65 67 63
37 43 51 63 64 62 63 58 56 59 64 70 69 66 67 60 58 62 55 47 28 26 29 45 46 49 52 54 59 59 52 54 59 55 55 59 61 58 52 51 50 51 54 61 64 66 69 66 72
33 40 50 58 54 53 52 46 48 54 59 64 59 60 57 51 44 32 29 22 17 23 31 40 37 45 51 56 54 54 50 51 53 55 54 58 54 47 50 52 51 50 56 62 64 66 73 72 72
29 35 43 47 43 46 40 41 44 47 47 45 44 46 40 23 38 30 33 26 23 15 40 20 46 49 54 60 59 53 49 49 56 57 51 47 43 51 53 54 56 58 57 61 67 65 73 81 83
30 35 39 37 28 29 33 37 44 42 41 43 35 33 25 28 28 26 40 49 51 50 48 50 56 57 40 42 43 52 52 58 59 50 45 45 51 57 60 57 58 61 68 65 70 74 74 80 87
34 35 32 17 19 23 26 31 35 37 31 20 23 31 26 25 30 31 37 44 46 57 44 43 63 54 47 53 44 57 62 60 54 47 51 53 57 59 61 60 61 60 66 70 81 82 83 84 88
41 35 20 16 21 24 33 36 37 29 30 27 32 31 29 32 23 33 44 52 49 43 57 70 66 62 53 58 65 61 60 54 43 48 56 51 50 49 52 59 66 78 78 77 78 87 91 98 98
36 27 22 22 31 34 38 40 33 25 35 42 37 30 26 22 31 30 34 41 37 37 43 51 62 60 51 52 55 63 60 50 52 57 53 58 60 62 68 70 77 86 91 92 93 100 102 104 97
26 21 24 33 37 36 40 42 35 33 47 39 40 36 32 23 26 27 36 38 43 48 44 43 52 49 56 59 61 64 67 67 66 66 72 73 74 76 78 81 83 83 89 91 93 94 94 95 94
20 21 26 37 37 33 41 42 40 41 42 47 38 46 46 43 41 41 39 43 44 48 53 53 49 52 52 59 63 69 74 76 77 76 80 82 86 88 87 88 89 95 98 97 97 94 92 90 89
19 22 28 34 37 32 41 41 37 42 45 48 45 48 52 45 40 40 44 50 53 52 54 59 55 58 59 64 71 70 72 76 79 84 85 87 90 92 95 98 96 97 92 91 92 89 87 89 87
30 30 36 38 35 29 38 31 35 35 36 37 47 42 49 49 45 47 46 49 51 54 59 55 57 59 62 63 68 70 73 77 81 84 87 88 89 90 92 88 85 88 89 87 86 81 79 79 81
33 39 41 34 38 36 33 29 26 27 30 32 31 34 47 53 44 53 52 48 49 49 53 58 55 55 57 73 72 72 73 76 76 73 69 72 76 80 90 86 80 80 80 81 75 73 72 74 76
33 35 45 36 35 35 28 25 25 23 27 28 31 39 49 50 43 52 57 54 47 50 52 53 54 58 59 61 69 76 73 67 67 69 69 73 77 78 78 80 76 73 72 73 69 69 73 77 81
36 34 41 39 38 33 28 29 25 23 27 30 30 38 52 57 44 45 53 54 48 46 49 53 57 64 65 62 59 59 61 63 67 70 69 71 72 72 70 70 70 69 66 66 67 72 75 79 82
31 34 37 37 35 33 31 26 27 28 30 33 31 40 49 45 45 42 46 49 51 50 54 55 53 51 51 52 53 59 61 61 62 64 66 67 66 65 65 65 62 62 64 68 72 76 80 84 86
24 27 38 31 32 32 28 30 29 33 34 29 27 30 28 31 28 29 34 37 37 39 40 42 45 46 49 51 53 56 57 59 59 60 60 60 61 62 61 60 62 64 68 74 78 83 87 88 85
24 25 34 30 27 30 30 28 30 29 31 34 33 36 40 41 41 38 36 42 44 43 36 40 41 41 43 47 49 49 51 50 52 54 58 60 62 60 63 65 67 70 73 78 82 87 89 88 86
27 30 31 30 27 30 28 29 28 27 31 33 34 35 39 41 43 41 41 41 40 31 30 37 37 38 44 43 42 43 45 48 53 56 59 60 62 66 69 70 70 72 76 82 87 89 88 88 88
26 34 31 30 28 25 27 28 27 30 30 32 34 37 37 40 40 41 35 32 28 28 31 32 36 35 34 38 41 44 47 52 55 59 61 62 64 65 66 68 70 75 81 86 89 90 89 88 90
18 24 26 26 27 28 29 27 28 31 31 32 32 30 35 33 38 38 38 29 23 23 27 32 34 36 36 40 44 45 48 51 53 56 59 63 65 65 66 70 76 80 84 89 93 91 90 91 92
26 23 27 29 29 27 28 28 28 28 31 33 33 27 28 30 34 31 25 23 26 25 30 35 39 40 43 44 46 49 51 53 56 60 61 63 63 64 70 77 82 85 89 92 95 93 94 95 98
24 26 29 28 30 29 28 26 27 29 31 29 28 25 26 25 29 27 30 30 25 31 33 36 40 44 46 47 49 53 56 59 62 64 66 65 68 72 76 82 86 89 93 96 92 94 97 101 106
25 28 28 29 32 32 29 29 29 30 26 23 29 26 24 25 28 34 37 33 34 34 33 37 42 46 49 52 55 58 59 62 64 66 66 70 74 78 83 88 89 94 97 96 96 98 102 107 108
25 30 27 29 33 33 30 28 28 27 26 22 24 23 22 22 24 27 28 34 36 36 37 40 43 48 52 55 59 62 64 65 65 68 73 78 82 85 89 92 94 98 97 99 101 106 108 106 104
26 26 30 29 30 34 30 27 27 26 22 22 22 25 25 24 26 29 34 36 37 39 40 43 47 49 53 58 64 66 66 68 70 74 79 83 86 89 94 97 98 96 99 104 106 106 105 103 102

GFSSGP_250_spd_027.txt.gz
Wind_Speed
57 58 60 63 66 73 82 86 98 97 94 93 93 92 89 91 91 88 85 83 81 79 75 74 75 73 73 74 74 76 76 74 72 74 74 74 74 75 77 76 76 77 77 76 76 72 71 74 68
49 56 61 61 60 63 72 86 87 93 91 89 88 92 92 92 91 90 86 84 82 78 76 73 71 70 72 73 73 76 73 72 73 77 76 74 75 75 77 77 76 77 77 78 75 73 69 62 59
41 50 58 60 59 65 71 76 78 82 85 85 89 94 93 93 91 90 88 83 79 77 73 69 69 68 72 72 68 66 66 68 68 71 73 72 73 73 74 74 74 77 75 71 72 67 63 58 52
39 46 52 59 61 65 70 67 72 75 77 79 84 88 93 91 91 87 85 81 76 71 63 62 65 67 65 65 63 60 61 64 69 69 69 69 68 70 70 70 65 60 65 65 64 65 53 43 48
35 39 46 53 58 64 61 63 65 67 67 74 78 84 88 89 86 83 74 68 58 53 52 53 56 54 52 48 48 50 54 56 59 61 66 67 68 68 70 63 58 63 64 64 58 52 54 46 51
33 36 42 48 53 51 51 51 60 61 59 64 70 73 76 79 77 75 72 60 54 42 43 42 36 39 41 46 49 52 52 51 56 61 62 62 63 65 63 60 63 60 53 55 54 51 49 51 51
29 33 37 37 37 41 42 45 48 48 50 53 61 64 66 65 61 57 52 47 40 28 24 27 32 42 46 42 41 44 45 50 55 55 54 56 56 58 58 62 59 51 50 50 52 58 59 63 62
27 31 33 30 25 32 28 28 34 38 49 52 58 56 51 49 44 44 43 37 35 33 19 25 33 31 40 43 41 46 48 48 50 50 46 50 52 58 58 58 57 56 54 58 59 63 66 61 57
25 27 24 21 19 23 27 31 37 45 46 47 49 45 37 36 36 37 35 34 42 36 20 18 34 38 40 48 49 52 56 47 46 45 46 54 61 51 51 46 52 55 58 60 64 66 63 58 65
23 19 20 20 20 24 28 33 37 40 42 39 39 35 29 32 36 34 35 48 44 34 35 47 27 42 54 54 51 52 46 45 53 42 44 46 55 54 56 57 59 58 56 54 54 66 66 72 79
22 20 20 19 20 18 23 31 34 38 35 31 30 27 32 35 32 35 39 54 46 48 52 53 54 52 54 54 52 52 54 47 53 58 54 65 61 67 60 61 48 57 69 69 71 76 81 84 88
18 20 15 17 20 19 17 26 33 26 26 27 30 28 30 31 34 38 50 56 46 48 54 54 56 60 58 59 64 58 58 63 63 63 66 70 71 64 60 68 69 76 77 80 89 87 90 93 97
23 22 18 16 13 18 21 24 27 28 34 32 37 39 29 23 41 42 54 55 49 57 55 58 58 61 55 59 63 57 56 62 61 62 64 66 66 69 68 74 85 85 85 92 95 95 97 97 98
22 19 20 23 20 25 29 31 31 36 38 38 37 33 27 23 35 43 51 55 56 57 57 56 63 63 63 66 61 64 67 68 69 65 66 70 73 75 81 83 87 92 92 98 91 86 84 87 89
13 18 18 17 25 32 33 33 33 40 38 43 43 46 39 35 35 35 45 55 53 52 57 57 53 60 54 54 61 63 64 63 64 64 72 77 79 81 80 83 83 78 75 74 76 79 81 84 87
20 23 18 22 28 36 33 40 37 42 41 46 49 52 47 41 43 44 46 48 55 50 52 53 58 60 60 63 67 66 68 65 66 71 77 81 81 86 87 83 78 77 80 79 78 80 80 77 73
20 25 23 25 28 39 36 42 41 42 42 43 45 50 50 46 38 44 36 41 48 49 53 55 56 61 63 66 65 68 67 70 70 75 80 82 80 79 79 78 78 80 77 77 75 73 73 72 72
25 24 25 30 33 35 39 36 45 43 43 38 39 47 49 53 44 40 37 39 40 48 53 55 60 60 60 64 70 60 65 65 69 70 74 76 75 77 78 78 76 75 74 73 71 70 70 72 75
20 20 25 29 29 35 42 35 30 38 43 39 36 33 40 50 52 55 53 53 53 49 49 53 57 57 60 62 64 69 73 70 69 71 65 70 71 73 73 73 70 69 70 72 71 73 74 77 79
22 24 27 33 29 24 31 37 29 35 31 30 34 32 36 41 49 60 58 52 59 56 51 54 55 62 64 61 61 64 67 67 64 61 63 66 67 66 64 65 67 69 72 75 75 77 81 84 86
22 26 30 30 34 29 28 28 31 32 32 33 33 36 38 38 41 47 51 58 50 54 53 55 59 59 60 62 60 56 54 54 57 59 61 61 59 60 63 67 71 74 76 76 77 79 75 75 81
18 25 31 31 36 27 28 33 31 29 29 29 33 34 34 32 35 38 49 58 57 58 55 52 51 53 50 49 48 49 52 50 54 55 54 55 59 64 68 71 74 75 76 76 75 73 76 82 87
18 19 24 27 36 35 33 34 29 29 29 31 32 34 38 33 36 38 39 43 43 45 47 47 45 42 42 40 41 42 44 46 47 48 53 57 61 62 61 64 67 69 71 70 74 78 81 86 91
17 21 22 25 31 30 28 28 30 30 31 32 33 37 37 37 38 38 40 45 45 46 47 37 34 34 37 38 34 40 45 47 49 53 56 60 62 65 67 68 67 65 70 73 77 81 86 91 93
16 18 25 27 32 30 34 33 33 34 33 34 34 35 35 36 38 36 36 38 41 43 41 33 31 31 37 37 40 45 48 50 54 57 59 63 66 67 69 68 67 71 75 79 82 86 89 92 93
15 19 25 29 31 29 28 28 26 29 30 31 34 36 37 39 39 38 34 34 33 31 25 29 29 32 38 42 46 48 51 54 56 59 63 65 68 70 70 68 72 76 81 83 86 92 91 88 91
17 19 21 27 29 29 29 29 27 29 33 33 31 34 38 40 35 34 30 30 28 26 28 32 34 39 44 45 47 50 53 55 58 60 64 68 69 68 69 72 77 82 85 85 91 92 90 91 96
15 18 22 26 26 28 29 31 31 30 31 31 28 32 29 28 29 28 29 29 32 33 33 33 39 42 45 47 51 52 53 55 59 64 67 66 68 70 73 79 83 86 88 91 95 92 92 96 102
21 20 21 22 26 26 27 31 34 32 31 35 32 30 26 28 29 25 23 24 28 30 33 38 42 46 47 48 50 51 54 58 63 64 65 69 72 75 79 84 86 88 92 96 93 95 98 102 105
24 25 23 25 30 31 31 34 34 31 31 30 25 26 25 26 24 25 27 29 30 34 39 44 46 46 47 50 52 55 60 63 66 68 70 72 76 81 85 87 89 92 97 94 96 101 103 105 106

GFSSGP_250_spd_030.txt.gz
Wind_Speed
49 48 51 56 56 62 64 65 76 84 90 94 94 89 86 88 87 89 86 87 80 81 78 76 70 69 67 67 69 69 71 70 73 73 75 75 76 73 74 73 74 75 77 79 79 79 77 76 77
48 46 49 52 56 61 66 68 66 72 79 89 93 92 90 88 87 84 86 86 84 82 78 77 72 68 69 68 64 64 68 69 70 73 72 76 74 73 74 75 75 75 74 77 78 77 78 76 75
45 45 46 49 55 61 62 62 61 64 69 76 83 83 86 87 88 85 87 80 81 78 78 77 70 69 67 66 68 68 67 70 71 72 72 75 73 71 71 72 72 72 70 72 72 74 72 70 67
43 38 42 45 50 55 57 61 60 59 61 68 71 78 79 78 82 85 84 86 82 78 73 70 64 66 65 70 71 67 61 63 65 65 72 69 66 64 67 68 68 68 68 70 70 70 68 69 65
37 34 34 36 43 49 53 56 57 55 54 59 59 65 69 72 79 83 82 81 78 71 63 60 64 65 66 62 56 58 57 60 61 63 62 60 60 60 61 66 65 64 63 66 65 64 63 62 59
33 29 28 28 32 41 47 51 52 50 50 53 54 57 59 69 73 75 73 73 67 61 55 54 53 54 54 48 46 48 49 52 51 54 54 54 52 53 55 60 62 60 61 63 64 62 59 58 58
29 25 24 22 26 32 37 43 45 46 43 46 50 50 55 57 63 68 67 62 56 50 47 49 44 44 46 44 51 41 42 44 51 48 50 50 49 51 54 54 56 57 60 64 63 60 59 54 59
28 22 19 20 22 24 28 35 39 42 41 46 48 52 48 52 54 54 56 54 46 46 44 42 45 44 39 38 36 41 44 46 48 47 49 49 51 54 53 56 50 57 60 66 64 58 58 61 55
24 18 18 18 19 20 25 29 33 35 41 46 48 51 48 45 44 42 41 37 38 40 44 44 51 37 29 24 36 46 49 42 46 51 55 60 60 57 52 51 48 55 60 59 67 63 62 50 61
15 14 17 16 15 17 23 27 30 33 38 41 43 46 45 38 37 33 33 33 38 45 46 38 33 33 25 31 35 44 47 49 53 52 53 58 54 51 49 52 50 62 67 70 64 67 66 68 70
5 12 14 13 12 18 19 24 26 28 32 34 32 30 31 31 33 27 29 38 46 43 44 41 28 28 38 43 48 51 47 49 50 50 47 40 43 49 56 60 64 65 61 62 64 70 75 79 88
5 9 10 14 10 15 13 14 20 22 27 31 30 28 27 29 28 29 37 44 51 45 36 37 38 41 51 45 52 53 58 48 45 50 48 55 57 61 55 60 64 70 69 70 72 76 82 84 84
6 9 9 14 16 15 17 21 20 23 28 31 27 27 23 20 23 27 36 51 48 52 52 50 52 63 57 57 57 56 54 53 59 59 55 52 54 63 72 72 70 72 76 75 79 87 91 91 90
9 10 8 11 13 20 16 16 21 27 31 28 26 26 28 26 28 32 36 54 51 55 55 57 61 58 63 67 62 58 52 57 57 64 64 68 71 65 67 71 73 74 77 84 89 91 86 88 83
12 15 15 9 11 16 17 23 26 29 29 28 36 31 32 21 32 39 36 44 52 50 50 54 51 59 57 65 65 71 69 68 68 70 69 75 72 74 74 73 78 80 85 85 83 82 82 80 79
5 14 14 15 18 20 20 26 24 28 26 40 37 37 37 29 30 36 38 37 44 52 49 46 55 59 59 57 54 63 66 63 68 63 69 72 74 78 80 79 82 81 82 79 79 77 78 78 77
5 13 11 11 11 19 23 26 24 25 32 36 37 41 43 37 34 39 39 42 45 47 47 55 52 57 58 60 57 59 60 65 69 70 71 72 74 81 84 84 79 77 77 73 73 75 77 75 76
10 7 8 11 7 16 22 27 22 25 31 33 39 41 41 40 38 42 46 44 48 50 55 61 58 63 61 61 62 61 61 66 68 70 70 79 82 79 78 77 70 68 69 72 73 73 73 76 79
9 12 12 15 14 21 26 32 32 29 30 28 36 43 44 44 43 41 44 39 48 52 56 57 59 62 60 62 60 65 68 69 72 75 76 76 73 73 67 65 65 67 68 70 71 73 75 75 78
13 14 16 16 19 14 29 32 37 31 27 32 26 35 44 46 44 41 39 42 43 48 47 52 54 56 55 58 61 67 72 78 81 79 78 75 68 66 63 62 63 64 65 68 69 69 73 76 77
15 16 15 16 20 17 23 31 33 33 35 28 32 35 40 34 43 46 49 49 47 50 55 58 58 60 65 66 63 59 65 70 72 68 62 56 57 57 57 58 60 63 67 71 74 77 79 76 74
11 14 18 20 21 25 21 19 31 34 29 33 31 31 33 37 34 36 38 42 42 44 47 51 48 45 48 51 56 58 58 56 55 54 54 52 54 56 57 61 64 68 71 74 76 76 76 76 79
11 11 17 20 23 26 29 26 25 25 31 34 32 33 34 36 39 40 37 36 32 34 35 41 45 49 54 51 55 55 52 51 52 50 50 54 56 58 61 65 68 71 75 76 75 74 74 78 83
14 14 16 21 24 26 25 34 31 27 29 30 31 31 33 36 37 36 38 37 37 37 37 39 29 39 47 50 49 45 47 48 49 50 53 57 59 63 65 68 70 73 76 74 74 74 79 83 86
16 17 20 21 23 25 28 29 30 25 25 28 32 34 36 38 39 38 37 38 40 41 40 37 37 44 44 41 42 45 44 46 50 53 56 59 63 65 66 68 72 74 71 74 76 80 83 84 86
17 16 20 23 24 25 27 28 27 27 28 32 33 32 30 33 36 38 38 37 39 37 39 41 36 37 40 38 40 44 45 48 53 56 58 62 64 64 67 71 72 73 75 78 81 85 86 87 89
21 14 15 18 21 24 25 28 26 26 28 30 30 30 33 35 35 37 38 37 40 37 35 36 29 34 38 38 43 45 47 51 55 59 61 64 64 67 70 72 73 76 79 82 84 86 88 91 96
20 19 16 19 22 22 25 28 29 26 29 31 33 36 37 37 38 39 38 36 35 34 35 32 34 37 36 40 42 45 51 55 56 60 62 64 65 69 72 72 74 79 83 83 86 88 91 96 98
18 23 22 17 22 26 26 30 32 32 32 33 36 38 38 38 37 36 33 31 32 33 28 28 31 34 39 42 48 50 52 55 60 62 63 65 68 72 72 74 79 84 86 86 89 93 96 99 100
20 23 25 26 28 28 30 37 35 36 35 36 38 39 39 37 33 34 30 29 25 25 27 30 34 39 42 43 46 48 54 58 61 64 66 69 72 73 76 80 84 87 91 91 94 98 99 99 104

GFSSGP_250_spd_036.txt.gz
Wind_Speed
79 78 68 67 63 59 57 57 58 61 63 67 70 75 80 81 83 90 91 92 94 92 87 88 89 86 86 84 81 78 76 75 73 73 74 76 76 78 79 78 78 77 78 76 76 77 75 76 76
80 75 68 61 57 52 47 46 52 56 59 64 68 71 74 68 79 76 83 91 92 93 90 86 86 86 84 80 79 79 77 76 75 75 76 78 77 80 79 78 77 76 76 76 76 77 76 76 77
82 73 65 57 52 46 40 38 44 51 58 61 63 65 59 51 69 69 79 79 84 88 88 85 89 88 83 81 78 78 75 75 76 77 78 78 79 80 78 75 74 76 76 75 75 78 76 75 74
86 72 59 50 45 40 35 34 38 43 52 56 56 53 48 44 55 70 72 71 84 82 84 86 87 84 82 79 79 76 74 75 75 74 76 76 76 75 74 75 75 74 74 76 74 73 73 73 72
85 68 56 44 38 33 32 33 35 37 47 53 55 51 64 61 42 55 69 66 72 74 67 68 74 77 77 81 79 77 74 75 74 77 75 73 72 73 71 69 70 70 69 71 71 69 67 66 63
82 62 52 39 31 29 27 30 32 35 40 49 54 55 62 69 62 53 55 66 61 58 52 49 52 55 64 66 69 72 72 72 67 65 64 67 66 65 65 64 63 62 62 61 62 62 60 61 61
72 56 43 33 28 24 23 25 29 33 37 42 49 54 59 63 55 58 59 59 60 54 54 50 45 49 50 54 62 62 62 60 60 58 59 59 57 57 58 55 57 56 58 57 60 59 58 56 58
64 49 35 26 23 20 20 21 21 23 27 37 42 49 52 63 59 60 61 57 54 47 39 44 50 49 46 44 36 48 49 45 43 41 45 49 47 53 55 55 55 55 55 56 60 58 58 60 59
59 49 33 27 21 15 13 14 16 16 21 30 33 42 50 56 55 56 59 54 48 45 48 44 42 45 50 48 44 37 34 37 37 39 43 46 51 47 47 54 56 53 57 57 58 60 60 53 51
58 50 32 23 17 9 9 12 13 19 18 22 29 36 44 47 47 48 49 49 47 49 45 55 48 41 41 37 34 32 33 33 25 32 41 45 43 43 50 57 55 55 58 58 55 52 46 55 59
54 44 27 19 9 7 9 13 16 17 20 20 24 31 40 39 41 45 42 43 43 44 45 46 45 44 46 36 37 39 40 32 30 37 41 43 50 53 50 54 58 56 59 50 52 56 62 66 64
54 41 20 6 3 3 9 11 16 17 16 17 20 25 32 34 36 39 40 36 33 35 39 46 48 47 42 48 54 42 44 47 40 45 46 46 51 50 53 57 56 59 62 68 59 64 64 64 74
49 32 14 3 2 4 3 4 14 10 12 16 17 17 20 22 26 33 34 33 31 32 37 44 54 60 55 60 60 52 54 57 48 49 54 55 58 59 62 61 63 60 60 58 63 68 68 70 75
46 28 12 4 3 4 6 9 12 13 15 17 20 16 18 18 22 31 35 34 32 32 34 40 51 51 54 56 55 47 52 57 49 49 53 55 57 58 63 54 56 59 63 64 67 72 78 81 84
42 29 7 2 4 6 10 13 13 16 19 19 22 17 13 17 22 24 30 28 31 30 30 34 45 50 51 54 50 48 46 46 50 50 56 58 57 58 57 60 64 66 69 75 71 73 76 79 84
40 27 13 9 10 6 8 7 10 16 14 18 18 18 21 9 8 19 27 27 27 32 34 42 41 30 42 56 47 48 50 48 51 52 47 50 58 67 69 67 69 70 73 74 71 76 80 82 81
38 29 19 13 8 2 6 3 6 9 18 20 16 22 25 12 20 11 14 23 27 28 31 42 44 35 43 46 41 35 49 46 46 52 58 59 55 55 61 66 73 73 76 75 76 78 80 81 76
37 32 17 9 8 7 5 5 8 16 20 23 22 29 30 30 22 16 12 20 16 23 28 34 38 46 43 47 44 41 46 45 57 53 56 60 68 74 71 71 72 79 76 81 80 81 79 77 74
38 31 22 9 8 8 5 9 14 19 23 28 15 25 29 22 32 24 27 21 23 25 38 30 36 41 46 45 50 52 49 56 56 65 60 69 68 68 68 72 78 80 84 79 81 80 78 74 69
40 30 31 15 10 8 8 9 11 19 24 21 17 23 23 20 28 30 26 32 19 29 35 39 40 44 46 49 51 49 60 62 56 59 62 64 64 69 75 79 74 72 73 76 77 80 70 68 71
38 29 28 29 11 11 8 9 13 19 19 21 16 27 24 32 32 32 33 34 34 29 33 43 36 43 51 52 52 62 60 59 65 65 66 69 76 75 75 72 77 76 77 76 75 68 68 69 70
35 29 23 29 18 13 10 10 15 18 18 23 20 22 21 24 37 37 38 33 32 37 39 37 38 42 53 51 52 58 59 63 65 69 69 71 73 71 73 69 71 69 66 65 66 68 70 73 73
45 33 21 24 23 18 15 16 13 16 21 21 23 26 24 20 22 34 41 39 42 39 38 41 42 44 43 48 54 56 61 60 61 65 63 63 66 66 67 64 62 62 63 68 68 71 74 75 77
45 32 24 21 23 22 21 20 18 16 16 21 26 27 29 28 26 26 26 31 38 40 42 43 44 44 47 45 41 45 44 44 46 46 50 53 57 56 55 57 60 64 66 67 71 74 76 79 80
42 32 27 20 21 24 23 24 22 23 25 22 25 26 26 29 28 26 28 29 31 33 33 34 30 29 29 31 34 39 39 45 47 51 52 54 54 56 56 60 64 66 67 70 73 77 78 78 77
41 33 30 20 20 21 23 28 24 25 26 25 25 25 24 27 32 33 31 31 32 33 33 32 33 31 26 31 35 36 38 42 48 52 55 56 57 59 60 63 64 66 67 75 76 78 78 79 79
38 37 32 23 21 22 23 28 25 21 23 22 24 25 25 27 28 28 31 33 33 33 32 33 33 33 34 36 41 44 42 46 51 54 57 59 60 63 62 63 65 68 75 80 81 80 81 82 83
38 38 30 27 23 24 26 28 28 20 25 26 25 24 28 30 33 32 32 32 33 35 34 34 33 36 36 41 48 52 55 55 54 55 56 56 61 64 63 66 68 71 81 83 82 83 85 86 88
35 33 30 31 24 24 27 30 30 22 25 26 28 30 30 32 32 34 34 34 35 35 35 34 35 37 37 38 47 53 52 51 50 52 54 57 62 64 66 69 72 80 84 84 84 86 89 93 95
35 38 36 30 29 27 29 36 33 29 28 31 30 31 31 33 35 37 38 38 38 38 39 41 39 36 38 41 43 45 53 50 47 51 57 61 63 63 66 73 79 83 84 84 87 91 94 96 97

GFSSGP_250_spd_039.txt.gz
Wind_Speed
70 72 73 72 70 71 70 64 59 57 51 48 45 56 75 76 74 60 48 57 67 87 92 96 94 91 90 90 87 87 84 83 82 81 80 80 77 77 78 79 79 77 77 80 81 82 81 81 80
71 73 73 68 68 71 65 59 57 53 35 40 54 64 70 70 68 68 78 77 69 66 84 92 92 91 85 86 88 88 88 84 84 81 81 81 79 79 83 83 79 79 80 79 84 84 82 80 78
70 72 68 68 70 64 59 55 52 46 42 52 53 54 55 64 57 57 63 81 77 69 76 80 84 86 89 89 90 88 85 82 84 83 82 83 81 81 83 83 82 82 82 83 83 82 80 80 77
73 70 69 68 64 57 55 48 44 38 36 39 43 41 47 57 45 28 37 55 56 52 76 70 73 83 90 89 85 80 80 81 81 82 82 82 81 82 79 79 79 79 81 81 80 79 78 78 74
71 69 68 66 60 54 45 40 35 30 34 37 35 13 43 47 45 41 33 54 39 32 57 59 60 68 76 80 80 81 82 80 78 77 80 82 80 79 77 75 78 77 77 78 76 76 76 71 68
68 67 64 62 54 41 32 29 28 27 30 33 34 56 58 51 61 61 59 44 55 71 64 40 54 56 63 65 65 71 77 82 78 79 77 75 77 77 74 71 71 73 70 70 71 69 67 65 63
68 62 59 51 38 26 23 25 25 25 26 29 28 35 47 52 63 70 64 43 59 69 52 45 37 37 46 61 53 58 65 68 69 68 70 71 64 61 63 64 65 64 66 66 63 56 57 57 62
66 64 58 47 33 27 23 23 23 22 22 28 30 39 50 55 61 74 62 50 50 46 53 40 34 37 43 41 41 43 44 50 57 61 54 50 50 52 50 52 54 55 59 57 62 59 59 59 57
61 56 52 41 31 25 21 14 16 19 19 22 30 43 50 63 67 73 68 51 45 40 49 44 46 47 44 44 39 32 26 29 32 36 40 40 37 40 41 44 46 52 54 53 58 62 59 61 59
59 52 49 34 27 25 13 10 11 14 17 19 25 39 48 61 71 74 67 61 49 48 50 52 49 46 45 43 46 39 32 27 31 33 32 29 35 40 35 43 45 49 51 53 57 54 62 59 62
56 52 47 34 22 14 7 6 10 15 15 20 22 33 41 48 57 65 66 57 54 54 54 54 50 47 43 46 43 41 40 37 35 37 30 34 35 44 39 42 51 57 58 54 57 59 62 66 59
54 51 45 33 16 17 7 7 8 9 11 9 12 24 33 37 47 51 58 57 54 55 53 41 53 50 50 46 44 47 43 39 31 39 40 32 36 44 48 54 55 53 51 58 61 56 63 55 58
54 47 42 31 19 13 9 6 3 2 9 13 12 13 19 30 35 41 46 50 51 55 56 55 47 54 52 47 49 40 44 46 42 43 44 46 51 53 60 60 56 55 56 53 60 60 63 66 71
52 43 39 28 22 16 10 8 3 2 5 7 17 15 12 15 23 27 32 37 41 40 48 51 51 54 57 51 52 49 52 52 49 42 44 53 54 59 55 54 55 61 60 62 61 66 68 67 71
51 41 36 22 17 20 19 15 4 7 9 10 9 14 16 2 9 17 24 32 35 37 39 44 46 52 51 50 55 54 54 59 52 56 48 48 54 58 50 55 59 61 64 61 68 73 75 74 74
52 46 34 24 12 13 18 12 14 8 7 17 10 14 11 21 21 20 25 28 31 29 29 31 41 42 52 56 59 54 51 57 48 52 55 52 54 51 52 54 57 60 62 68 64 65 70 72 77
50 44 33 23 10 5 10 5 14 13 17 14 21 18 14 16 7 9 15 19 22 24 25 20 25 31 24 53 48 59 59 55 58 52 50 53 53 56 56 59 59 70 69 73 78 77 79 79 80
46 46 34 28 15 10 6 9 8 11 23 17 21 20 10 12 6 9 9 7 23 21 19 33 28 24 30 31 45 46 48 53 47 52 56 55 57 55 57 67 70 75 75 74 76 80 83 81 83
42 48 40 26 20 11 8 5 11 15 23 26 23 25 23 20 19 22 19 13 15 23 24 27 32 38 38 34 47 43 47 49 56 55 54 50 61 65 71 71 71 69 73 78 82 82 83 83 83
41 44 45 29 19 19 7 8 13 19 25 28 21 30 28 29 27 28 23 30 20 23 26 31 29 39 46 47 38 44 53 49 50 58 58 62 62 62 63 69 70 75 77 87 89 88 82 77 80
46 44 48 32 20 18 13 10 10 21 26 28 22 27 33 36 35 32 26 31 28 27 29 33 41 32 34 39 52 53 56 55 52 53 62 67 67 72 73 72 72 74 79 80 84 78 75 68 67
55 46 46 36 24 16 17 13 11 15 26 27 25 20 32 33 35 37 37 31 39 35 32 33 36 45 44 43 45 52 53 59 62 66 64 65 69 71 73 75 79 79 78 76 73 69 65 67 70
57 56 44 39 28 20 15 17 14 14 19 22 30 26 23 29 37 41 37 37 39 40 42 37 34 45 46 46 46 48 53 60 65 68 72 71 74 81 79 76 73 68 66 68 66 65 68 72 75
54 55 41 45 36 21 18 17 16 16 16 23 27 31 29 30 28 25 30 42 42 41 41 40 40 43 45 48 52 52 54 56 52 57 61 67 70 72 73 67 65 65 66 67 69 71 74 76 77
52 53 41 44 36 27 18 18 18 22 23 23 24 27 32 33 33 32 30 28 30 34 37 39 42 44 45 47 49 47 48 42 53 51 57 61 61 61 61 63 63 64 66 71 73 76 76 78 78
50 49 37 41 38 31 23 21 17 24 25 28 29 30 31 33 34 32 33 32 31 32 35 37 37 40 41 38 40 37 42 43 47 47 51 55 58 58 56 59 65 67 72 73 75 77 76 79 83
43 48 40 34 40 40 30 25 21 19 24 27 31 34 33 35 31 28 28 32 36 39 39 38 37 37 39 37 40 43 43 44 48 50 51 50 53 56 61 67 69 72 74 76 73 77 79 82 89
43 47 46 36 37 42 36 28 26 22 20 24 28 31 34 33 31 29 31 33 33 33 33 36 36 35 37 38 41 44 50 52 57 56 58 60 62 65 68 69 69 71 74 77 79 83 84 89 94
39 37 39 37 35 40 39 31 26 23 23 25 27 31 32 33 32 34 36 37 37 34 35 37 38 38 39 40 41 46 50 52 56 61 66 66 66 66 65 65 67 72 77 80 84 88 90 94 94
40 37 37 37 36 38 37 33 26 26 23 31 29 30 34 36 37 38 39 37 37 38 38 40 43 42 42 43 42 47 49 49 59 62 62 64 66 66 67 69 71 78 81 83 86 91 93 95 93

GFSSGP_250_spd_042.txt.gz
Wind_Speed
70 71 71 74 72 73 78 80 76 71 67 51 43 30 23 34 33 37 40 48 62 60 52 48 62 78 86 89 93 94 94 93 91 89 86 83 83 83 83 82 80 79 79 78 80 81 81 81 80
72 71 71 72 72 76 73 68 59 64 50 41 32 35 22 4 19 18 55 61 65 39 47 55 58 60 76 88 92 94 94 92 90 91 88 87 85 86 85 84 82 82 82 81 83 83 82 83 83
70 70 71 72 75 70 62 59 54 52 36 27 24 38 22 21 40 28 47 67 55 44 57 60 46 47 55 74 85 88 88 90 90 89 89 89 87 87 84 84 82 84 83 84 84 84 83 84 82
67 66 68 72 70 64 64 55 49 36 18 12 18 26 33 37 42 44 37 40 57 36 52 57 56 51 54 55 62 85 85 86 84 88 90 89 87 85 84 84 83 84 85 85 83 84 81 79 79
61 63 66 63 59 62 54 46 37 21 14 18 24 38 37 45 56 53 48 63 67 49 50 46 44 54 57 53 57 56 74 82 86 85 84 84 85 82 82 81 79 82 83 82 81 81 82 81 78
60 65 63 60 57 54 45 32 11 3 14 5 11 21 31 33 36 56 55 53 74 73 64 48 46 49 40 42 49 59 62 65 73 77 83 84 81 78 78 78 76 77 76 77 78 78 75 73 71
58 60 60 59 52 38 29 25 15 4 18 10 30 32 34 49 39 42 57 50 56 59 49 36 21 28 34 35 43 40 42 48 61 70 76 78 77 77 76 72 67 71 74 68 62 60 61 60 58
55 54 53 51 45 19 15 12 10 7 19 18 31 48 37 41 43 41 50 58 52 40 32 27 46 56 38 39 42 30 30 34 44 50 59 61 58 60 59 56 61 52 51 51 54 53 52 56 56
49 51 46 43 32 17 8 4 13 26 14 26 35 45 61 48 40 52 55 52 52 51 56 52 46 40 30 31 30 33 29 33 35 36 40 40 44 45 48 45 37 40 44 48 49 51 51 51 54
43 46 44 40 30 29 20 15 20 26 27 10 27 24 44 58 49 68 61 57 56 65 64 53 47 54 57 57 44 42 38 28 20 23 22 22 27 29 31 33 32 34 42 45 46 47 50 51 49
43 44 41 39 28 25 21 11 3 19 14 7 24 27 33 51 56 76 67 62 57 64 71 55 42 49 56 63 52 45 39 35 27 29 29 29 28 28 31 36 42 43 45 55 51 50 54 54 55
43 46 41 37 27 22 20 7 4 5 20 17 31 36 31 53 59 76 74 73 68 58 70 74 54 53 53 48 48 48 43 43 37 38 38 37 38 41 41 45 46 47 50 54 55 56 56 49 52
44 44 42 32 22 26 15 24 16 10 6 17 22 34 35 42 52 61 62 68 73 72 62 57 62 56 55 51 49 49 47 48 49 41 41 39 39 42 46 45 44 47 50 50 54 55 52 56 64
42 46 43 30 17 19 16 11 25 17 35 5 10 11 14 24 43 60 63 59 66 63 60 54 55 58 57 53 53 50 49 50 48 49 46 45 45 47 50 49 46 50 51 56 53 54 60 62 63
41 44 47 30 10 22 17 7 11 7 22 3 6 11 17 13 21 34 56 67 71 70 67 56 59 56 53 52 58 54 54 53 48 49 53 54 53 49 47 52 55 54 56 57 60 61 63 71 71
44 50 50 40 16 8 10 6 10 16 7 5 6 8 18 22 23 24 29 40 50 61 63 61 58 57 57 52 53 56 58 57 54 53 52 63 56 53 51 46 49 53 58 58 59 62 65 65 70
46 52 53 48 29 12 5 10 6 11 13 12 14 13 7 10 16 12 27 33 38 43 48 50 52 57 59 59 57 58 53 52 56 55 57 58 59 53 56 56 56 55 54 61 67 69 74 78 79
46 53 52 50 42 23 3 10 5 10 13 16 12 10 9 10 7 5 9 19 24 32 36 38 39 46 52 55 57 60 59 53 48 52 55 54 53 52 57 59 55 61 63 64 66 64 71 73 75
47 51 55 52 45 32 18 3 18 14 13 20 12 9 13 12 13 10 6 10 10 20 23 22 21 24 28 31 25 25 47 40 37 44 48 54 57 61 54 59 62 71 68 74 73 80 78 81 86
47 49 55 56 44 41 22 14 11 20 24 23 22 19 20 19 16 14 16 13 12 18 23 23 30 29 31 29 30 36 31 44 48 49 55 57 58 58 60 67 64 62 62 66 73 72 79 83 86
46 47 49 55 48 44 25 12 13 19 22 29 22 21 27 24 25 20 22 23 23 21 27 28 28 33 37 33 43 41 44 47 49 52 50 55 60 65 68 62 67 69 71 76 77 79 84 86 86
42 47 49 55 47 43 31 15 10 13 27 34 32 24 35 29 32 32 30 31 32 28 29 34 37 40 35 39 43 48 47 51 53 50 53 57 60 61 65 64 64 72 76 79 85 87 84 85 80
43 47 40 48 46 42 41 22 13 14 19 31 36 35 35 39 37 42 40 37 35 40 34 37 37 36 38 43 42 43 46 44 54 67 68 63 64 68 69 74 79 79 81 86 84 79 76 76 74
39 47 44 37 48 49 40 39 22 13 20 26 36 37 35 39 42 41 40 36 40 38 43 43 41 41 40 38 42 46 54 54 54 54 59 64 69 73 73 74 76 77 75 74 74 71 70 71 75
38 43 34 33 47 45 40 40 35 24 17 20 27 36 36 39 39 36 39 40 41 42 49 45 46 45 45 47 42 44 51 56 59 60 64 66 68 70 68 69 72 72 68 67 68 69 72 76 82
34 36 31 39 45 53 42 42 36 23 24 16 23 31 35 37 42 40 40 35 33 32 33 43 45 48 48 47 46 47 51 51 56 55 56 58 61 64 68 66 65 68 67 65 69 72 77 83 84
34 39 32 37 36 40 33 40 37 27 23 24 21 25 30 34 37 44 39 45 44 43 39 36 37 39 41 41 42 44 46 48 51 54 55 56 60 61 63 65 65 64 65 70 74 78 81 82 83
41 40 38 40 35 43 35 38 36 32 30 23 26 24 27 32 31 33 16 47 48 51 51 50 47 44 46 45 45 45 43 46 51 54 57 58 59 61 64 66 66 66 70 74 79 80 81 88 87
44 36 46 45 34 43 38 38 37 40 34 25 27 24 25 26 30 33 37 43 44 38 40 39 43 41 41 44 42 44 45 50 51 54 57 59 59 62 64 67 70 74 79 81 82 82 82 86 89
46 43 47 44 40 40 40 37 38 35 34 31 32 27 24 27 27 34 37 40 40 41 43 41 43 41 40 47 46 44 48 52 51 53 55 59 63 65 67 71 74 76 78 78 78 82 85 87 92

GFSSGP_250_spd_045.txt.gz
Wind_Speed
66 70 72 71 73 75 75 75 73 71 66 59 57 53 50 55 54 50 33 29 36 36 34 35 50 54 56 63 62 62 73 86 90 93 91 89 87 85 86 84 82 83 83 83 82 82 80 80 77
70 70 73 72 71 73 74 73 72 64 57 48 47 43 40 33 34 27 29 48 47 27 40 37 39 46 37 50 61 63 73 77 86 89 91 90 89 87 87 86 86 86 85 85 85 85 84 83 81
69 67 72 71 73 75 72 67 61 53 50 46 40 30 27 32 31 36 42 56 53 49 58 42 33 46 40 37 39 43 43 59 77 84 86 89 89 87 87 88 90 88 87 87 87 87 85 84 84
63 64 64 66 72 72 67 59 55 42 41 33 23 34 33 22 38 34 67 70 44 62 41 33 33 35 40 41 50 42 45 36 48 71 82 83 85 89 87 87 90 89 89 87 86 86 85 85 83
59 60 64 67 70 71 62 54 43 31 23 16 38 45 31 32 35 31 47 50 54 66 30 35 14 39 35 35 42 53 48 46 44 49 62 77 79 79 82 85 88 87 85 85 83 83 85 83 80
52 56 58 62 64 59 53 34 18 10 17 15 43 41 33 38 32 34 47 38 51 55 32 36 24 22 38 42 43 45 44 41 37 45 46 48 66 75 76 78 78 79 81 79 80 78 76 77 74
51 49 52 55 55 53 43 18 16 19 32 29 35 41 32 32 29 41 46 35 48 51 45 44 42 44 30 29 35 45 34 34 35 35 38 47 50 61 65 63 70 74 71 69 70 70 65 61 63
43 41 47 48 44 40 27 14 28 30 33 34 32 30 18 38 39 43 48 45 49 60 55 52 42 27 27 37 34 40 41 42 33 30 36 37 44 45 49 55 56 58 62 55 54 57 55 52 48
37 39 43 43 38 29 11 14 21 20 11 12 26 29 27 30 47 50 55 57 52 66 64 58 46 36 27 36 38 52 44 44 42 29 31 26 30 34 31 35 42 50 44 39 39 42 42 46 45
34 38 37 41 32 18 7 12 17 19 14 15 25 34 42 39 42 47 51 59 69 60 74 63 47 46 64 49 49 46 50 47 35 30 25 18 23 26 27 30 33 35 40 37 37 39 47 48 45
32 39 40 36 30 5 6 17 11 8 5 21 34 37 42 48 53 48 58 57 57 65 65 80 69 63 58 57 58 54 38 34 27 29 33 33 23 26 31 37 40 39 43 41 40 46 41 53 54
38 46 44 36 18 6 13 20 15 10 13 22 29 27 39 44 58 55 54 50 58 65 68 72 68 67 68 71 55 56 43 36 38 35 35 27 30 32 34 41 43 42 44 45 48 50 50 47 46
35 44 51 40 12 9 25 20 13 7 12 19 21 31 33 43 49 55 53 58 58 67 73 74 69 58 68 69 66 54 52 51 45 41 46 39 38 41 43 40 42 45 45 47 48 45 45 51 53
34 41 48 44 25 21 8 22 18 9 8 18 16 19 27 32 36 35 51 55 65 67 75 72 72 63 64 66 64 63 61 62 50 47 46 47 46 49 46 45 44 44 44 47 48 50 49 52 52
32 40 43 46 38 21 8 5 4 7 15 9 4 7 6 11 19 33 46 64 69 64 68 69 76 59 63 61 62 54 57 57 52 52 51 53 47 50 52 49 45 47 47 51 53 53 53 53 55
30 38 41 45 42 28 16 6 9 6 10 8 4 11 8 9 7 27 43 66 66 61 58 68 69 72 67 62 57 53 56 54 57 63 60 55 49 52 54 51 52 53 51 51 53 53 54 55 56
32 37 43 41 43 39 23 17 17 9 9 7 7 11 8 12 9 16 34 65 65 63 63 63 63 65 58 56 56 57 59 60 55 54 52 52 55 54 54 55 61 61 56 54 57 59 61 63 67
32 36 40 44 38 39 35 17 26 19 6 13 11 13 4 6 10 19 27 47 70 72 67 64 64 73 69 64 58 61 62 54 55 48 54 53 56 58 60 60 58 55 54 60 59 58 63 67 70
33 35 36 44 41 40 39 28 16 19 10 15 14 16 13 12 13 12 14 24 46 75 68 59 68 72 73 70 68 62 64 64 60 57 55 54 48 51 53 54 54 58 55 56 59 63 62 64 63
34 34 37 39 44 46 38 37 16 20 25 16 23 25 12 15 6 8 17 19 21 36 48 57 66 75 71 68 62 61 59 52 50 57 63 54 57 55 53 57 55 56 60 63 66 69 72 78 78
32 37 37 39 41 41 45 35 24 14 18 24 30 27 22 20 18 15 11 13 10 16 25 29 36 44 47 48 41 38 40 40 37 35 40 51 59 57 51 54 61 59 58 65 67 70 74 75 78
29 36 35 36 39 38 46 34 28 20 12 26 36 31 32 30 29 24 23 19 16 16 18 20 22 22 27 28 31 33 35 36 37 43 43 45 46 51 53 54 55 58 57 63 67 69 76 82 85
26 35 35 39 34 35 41 36 33 26 17 12 26 33 23 27 30 28 30 32 29 28 28 31 37 35 32 35 35 44 45 46 47 53 52 56 60 63 63 65 62 66 66 69 74 78 83 84 83
27 33 33 37 31 29 39 46 33 31 23 15 13 41 37 28 33 35 34 35 34 34 32 32 31 36 38 44 42 45 38 50 58 62 58 63 64 65 69 73 73 77 79 76 78 83 84 78 76
36 33 32 36 32 33 36 40 33 35 32 19 19 18 29 43 39 41 38 34 37 37 36 41 40 40 41 45 48 49 50 51 51 50 54 58 60 66 69 70 74 73 73 75 74 73 73 73 74
38 35 33 35 34 33 38 41 42 33 34 29 19 18 22 26 32 42 41 43 39 38 44 40 44 48 51 49 51 55 58 58 63 63 62 61 63 64 65 69 68 69 70 72 70 70 70 72 75
38 41 41 38 36 32 39 41 38 35 33 35 26 17 18 24 30 24 41 38 44 41 40 40 36 35 37 39 42 45 46 50 52 56 58 60 60 62 63 63 65 66 68 70 70 70 71 74 78
39 46 42 34 32 33 39 38 37 39 36 30 30 27 25 18 18 25 24 31 41 45 44 42 45 45 42 44 50 48 48 54 59 57 56 58 61 61 60 61 65 67 67 66 68 70 73 78 82
47 47 47 39 32 32 40 41 31 31 38 39 32 32 29 27 21 21 22 24 28 33 31 29 30 30 25 36 42 45 42 45 45 53 55 55 56 57 62 64 66 67 71 72 73 75 79 82 87
51 49 51 46 37 37 36 40 28 32 34 47 41 33 28 29 27 26 24 25 28 39 39 40 44 37 35 39 45 44 39 37 33 44 49 59 62 63 61 63 65 68 71 75 80 82 86 86 86

GFSSGP_250_spd_051.txt.gz
Wind_Speed
58 54 57 61 65 66 69 69 72 75 72 75 72 71 72 73 74 74 73 71 69 72 67 64 58 58 56 51 48 44 39 45 45 49 48 51 60 73 79 81 85 88 90 90 89 88 88 87 86
52 55 58 61 67 71 72 72 70 68 68 69 69 70 68 67 68 69 69 67 62 63 59 54 50 55 54 52 49 36 28 26 33 42 42 46 52 55 66 68 68 78 88 90 92 92 90 87 87
59 64 66 70 69 71 71 71 69 67 66 64 60 61 61 59 61 64 62 57 55 53 48 46 44 50 56 51 47 37 23 22 29 33 34 43 49 50 53 58 61 67 77 85 87 90 91 88 87
60 60 63 60 59 61 64 65 63 60 56 53 50 46 46 48 51 53 52 51 50 44 39 40 43 46 45 38 39 33 20 21 25 29 31 35 42 42 46 47 53 58 66 70 79 86 87 87 86
61 56 55 53 55 58 58 58 55 53 54 48 45 42 39 38 41 39 39 39 38 39 38 37 38 37 32 33 27 31 25 23 30 34 36 39 40 42 49 50 43 44 48 57 64 73 81 82 83
45 49 50 52 54 54 57 52 48 52 48 45 43 39 34 36 35 31 25 28 29 33 37 45 41 26 23 18 28 40 36 38 40 37 41 40 36 42 46 48 47 39 36 36 47 59 69 70 69
42 42 49 49 50 48 53 49 45 45 42 36 35 31 28 27 20 20 26 30 35 34 48 48 33 32 35 24 43 48 53 36 42 37 40 37 30 36 40 41 44 41 34 37 40 45 52 57 62
40 41 42 47 43 53 50 41 35 37 27 25 30 28 27 26 25 27 35 44 52 50 57 56 44 36 35 30 36 54 54 42 37 40 47 42 35 41 37 31 36 41 40 36 40 46 51 47 46
38 32 36 41 47 48 40 28 31 21 20 24 23 32 30 31 35 33 57 56 62 61 61 56 53 47 39 48 42 51 54 46 47 48 42 48 41 41 29 34 38 38 35 38 38 38 44 45 43
29 25 37 37 43 45 39 32 24 20 22 25 24 38 29 36 41 47 62 60 64 59 59 57 53 46 40 51 45 45 54 45 53 47 51 45 49 45 39 40 41 35 34 34 29 37 40 39 38
25 26 34 33 38 37 35 32 19 20 23 25 25 33 35 45 46 55 68 59 70 61 62 69 61 51 47 54 52 54 62 50 44 45 41 41 43 38 39 39 34 32 35 39 45 44 42 38 38
25 28 29 29 33 32 27 29 16 25 23 28 33 44 38 38 47 59 55 71 72 64 65 65 60 49 50 51 61 58 56 44 39 39 46 47 47 39 35 36 37 36 43 46 47 48 43 42 39
27 23 23 29 31 37 33 27 21 23 29 25 36 44 43 46 48 56 56 62 73 66 66 69 59 57 48 51 55 56 54 50 48 52 49 48 42 40 38 30 33 43 42 47 51 44 44 47 46
23 19 25 29 31 33 34 31 24 21 26 27 25 36 50 42 50 55 60 61 82 71 69 68 64 63 53 49 57 57 59 55 48 52 55 52 47 43 38 38 43 47 46 50 52 45 43 51 51
19 20 24 23 30 33 39 33 25 20 25 33 29 29 19 47 54 60 58 74 73 79 71 72 67 64 61 56 57 55 56 57 51 52 52 55 55 48 51 48 48 53 51 53 51 47 52 53 54
14 18 24 23 29 37 39 35 29 27 19 23 24 29 26 17 44 50 64 71 76 79 66 74 72 72 64 65 61 59 56 50 51 47 51 50 54 55 53 54 57 51 52 54 56 58 64 57 57
15 24 27 25 25 34 37 36 33 30 27 17 16 25 22 16 16 19 46 70 75 77 73 71 76 77 73 67 63 65 61 56 56 59 62 55 59 60 59 61 56 54 56 58 65 67 65 61 58
22 23 22 24 24 31 40 42 39 32 31 22 12 16 18 18 11 15 15 32 65 77 72 79 76 70 75 76 72 68 67 70 69 67 65 65 63 59 62 55 57 59 64 67 68 69 67 64 63
32 28 24 25 25 35 36 40 40 37 36 27 18 12 17 15 17 11 16 19 30 55 68 77 76 75 76 85 80 75 76 73 74 75 77 72 68 56 57 60 63 68 68 64 64 64 65 65 62
40 30 27 31 31 36 38 38 40 39 42 32 19 16 20 20 20 15 12 16 20 36 49 69 78 74 81 81 81 83 76 80 76 80 76 69 67 73 67 68 67 66 62 65 65 60 64 61 61
40 31 27 33 33 32 30 37 40 40 38 35 24 16 20 24 19 21 16 15 17 20 29 41 59 66 75 73 75 78 77 73 77 78 75 67 70 67 70 72 75 70 69 66 61 56 53 50 51
37 33 27 33 30 29 33 37 40 41 37 37 28 21 15 22 24 24 22 17 18 16 17 28 35 42 57 56 56 57 56 63 68 71 67 76 74 74 75 86 73 64 62 51 48 49 50 48 53
45 38 36 37 32 29 31 34 39 38 34 31 30 26 21 13 27 28 28 21 20 17 12 19 23 28 31 42 52 55 55 54 62 62 59 63 66 73 78 61 61 58 50 51 54 56 56 56 54
45 37 43 43 37 33 32 35 33 38 33 29 31 32 26 21 19 26 30 27 24 23 21 17 19 20 22 28 40 51 57 61 56 55 56 59 57 56 49 48 47 53 60 59 61 58 57 58 58
46 41 38 37 38 38 34 36 35 34 33 34 32 30 30 25 19 20 23 36 33 32 28 25 23 24 26 30 38 39 36 35 33 39 41 44 46 48 53 53 54 57 54 51 55 58 60 61 62
46 43 42 40 39 43 35 36 38 33 28 32 32 32 34 32 28 17 20 23 36 31 36 34 34 33 33 34 35 35 38 39 38 43 44 49 44 46 45 47 53 54 53 54 58 60 62 61 63
46 42 47 43 37 37 35 35 36 33 30 30 33 31 31 33 30 29 17 18 23 35 40 35 42 45 40 38 43 46 48 47 49 46 46 45 49 51 53 52 50 53 54 53 52 55 59 64 65
46 48 47 47 44 40 40 35 37 34 30 28 30 28 31 28 33 31 29 21 14 23 30 36 40 45 46 46 45 46 47 50 48 47 45 42 43 43 41 43 48 51 53 52 55 60 57 59 64
50 50 50 51 46 42 43 39 42 36 34 30 31 31 31 25 27 30 29 29 23 15 24 25 29 39 44 53 50 49 47 49 52 49 49 50 44 44 41 48 53 59 58 58 62 65 70 72 76
50 46 48 47 48 40 42 37 44 41 37 33 33 32 25 27 22 26 29 29 31 28 19 21 24 28 31 38 44 46 50 52 51 51 49 48 40 45 43 43 55 61 55 63 74 73 78 83 83

GFSSGP_250_spd_057.txt.gz
Wind_Speed
51 52 50 52 52 54 56 57 57 58 59 60 61 62 64 66 65 67 70 70 72 74 77 75 75 75 76 74 77 68 65 67 69 67 69 66 64 59 57 63 67 65 67 73 81 83 82 82 87
48 48 48 46 48 50 53 53 56 57 58 60 62 63 63 65 65 67 68 70 70 71 69 70 71 73 74 74 74 69 65 68 68 67 67 68 64 62 59 60 64 69 68 67 69 75 79 74 73
48 45 43 45 44 46 47 49 50 52 53 54 57 61 63 63 61 60 62 65 67 65 61 63 66 68 71 71 68 69 62 63 67 66 67 64 59 57 57 57 53 57 56 54 51 55 62 64 64
43 40 40 39 38 38 40 40 45 47 48 51 52 55 57 56 49 49 55 59 58 57 50 45 41 44 60 66 65 66 58 57 61 61 61 52 49 43 42 46 43 40 38 40 40 37 37 42 50
42 39 35 33 30 35 36 40 41 41 46 47 49 50 51 51 44 44 44 42 40 39 30 35 35 33 38 44 51 56 55 54 57 58 52 48 38 36 37 35 31 29 28 29 25 23 24 22 23
40 39 33 29 32 36 37 37 35 37 41 43 42 45 42 33 22 23 15 14 13 18 17 10 15 23 30 35 41 47 48 48 52 55 48 40 41 35 36 31 27 19 21 23 20 18 18 16 19
40 35 28 30 33 34 34 35 35 42 43 44 38 30 21 20 16 15 6 3 28 35 22 24 17 14 24 30 33 31 36 41 47 49 48 36 42 33 31 25 20 17 20 18 19 13 14 14 14
39 31 29 28 31 31 30 34 40 44 43 39 28 22 17 23 20 12 2 17 28 27 32 37 26 11 15 28 28 31 29 28 42 41 42 45 41 33 29 24 25 23 24 24 21 17 17 17 15
38 29 25 26 25 28 30 34 40 40 36 32 30 22 19 19 23 10 3 19 19 26 26 28 23 21 9 20 26 27 35 36 36 41 47 44 42 33 31 29 30 30 32 29 29 24 16 17 21
34 25 22 22 24 25 29 33 33 37 34 34 30 21 19 19 22 12 11 18 26 28 29 36 28 20 38 32 36 39 39 46 47 50 48 49 38 29 29 36 38 33 33 29 35 31 23 23 26
30 22 22 23 21 25 19 27 32 37 37 36 31 23 22 22 20 15 13 24 23 24 30 33 27 33 41 41 40 42 43 45 49 49 53 50 35 36 33 35 36 28 32 34 38 38 41 39 34
26 19 23 25 22 23 25 29 30 34 37 39 38 27 20 19 16 17 19 26 29 30 34 35 34 34 43 47 45 42 38 42 44 41 41 41 35 36 35 41 42 37 41 43 37 41 42 33 36
22 21 25 24 24 22 23 24 29 33 37 43 38 32 20 21 23 16 25 28 35 36 40 35 34 36 42 46 43 35 36 39 39 40 38 40 36 40 33 39 46 32 40 35 34 34 40 39 34
21 19 22 26 20 18 22 22 27 33 36 40 40 33 22 22 22 13 25 33 37 43 41 38 38 36 44 43 47 36 41 40 47 42 39 36 35 43 39 41 37 36 36 38 33 36 35 39 39
21 20 25 25 21 18 23 21 27 29 37 41 40 32 25 16 22 20 25 35 37 48 39 47 37 42 39 50 47 42 38 40 42 45 44 47 45 43 44 39 33 34 33 37 43 37 40 40 42
21 23 24 22 20 20 23 22 25 26 33 40 40 36 28 21 13 19 22 33 43 49 48 48 43 42 45 46 48 44 40 39 41 45 48 50 44 45 46 39 39 37 42 40 39 40 41 42 48
22 24 22 23 23 21 24 24 25 25 29 36 40 41 34 24 11 13 20 23 38 49 58 48 46 53 41 46 43 49 41 36 41 47 46 46 50 55 54 47 45 45 43 39 39 42 45 48 51
20 22 25 26 24 23 24 27 25 23 25 30 37 41 38 29 14 11 13 22 22 43 59 61 52 52 55 48 44 46 51 47 45 46 46 45 43 41 50 47 45 44 48 43 45 51 54 58 60
26 24 29 28 24 26 24 24 25 23 24 29 31 36 43 36 22 11 8 10 19 31 50 59 62 54 52 48 45 40 48 49 50 52 48 42 45 42 45 50 48 45 50 54 57 59 61 61 61
31 29 31 30 25 29 24 27 25 27 26 28 28 30 34 44 31 21 11 11 10 16 27 46 66 65 59 58 56 47 45 44 57 56 55 56 52 52 53 51 53 58 62 64 67 69 68 70 65
37 33 27 22 24 28 29 27 28 27 28 27 27 25 30 37 39 23 16 14 13 12 15 24 25 50 68 62 68 65 57 58 56 54 57 55 60 63 64 65 67 67 65 63 65 69 63 63 60
41 31 25 23 22 27 28 31 27 30 30 29 28 21 25 29 34 32 21 14 18 16 12 14 13 19 40 75 68 68 69 67 62 62 58 57 58 62 58 58 60 62 64 65 63 57 57 55 52
44 34 31 31 27 30 27 30 28 28 32 25 27 21 22 26 28 31 31 19 13 20 19 16 14 9 18 35 56 56 64 71 70 62 63 58 57 58 55 57 59 56 51 49 46 52 52 52 51
42 39 36 32 27 32 27 24 32 28 30 26 26 18 18 22 22 27 32 27 16 13 19 18 18 14 9 13 23 30 42 54 72 65 64 61 62 63 62 58 57 58 60 53 50 52 52 51 55
44 43 41 37 32 35 28 24 36 30 30 28 28 17 17 19 22 25 27 22 25 16 12 18 21 21 19 17 16 19 23 29 42 50 50 59 58 57 68 61 56 57 54 54 53 53 53 54 54
50 48 40 40 40 33 35 32 40 35 29 29 26 20 22 20 20 22 23 19 22 21 17 11 14 27 28 27 27 23 20 20 23 29 34 40 44 46 47 51 50 52 56 50 49 51 53 55 58
49 43 45 39 36 38 39 35 38 35 31 30 28 28 27 25 22 23 22 21 16 21 19 18 11 12 23 32 36 33 30 28 28 33 34 34 38 41 46 50 46 46 49 47 46 49 53 56 56
52 50 49 46 40 39 37 34 40 37 31 33 31 30 28 31 26 25 25 23 19 20 16 18 17 13 11 18 27 41 39 40 40 40 38 41 40 41 45 45 46 44 47 49 51 54 55 58 56
56 53 51 48 44 40 38 35 41 39 32 36 32 28 29 32 30 29 26 26 22 19 15 16 18 16 15 16 16 21 31 45 51 51 51 51 50 50 52 51 48 49 51 50 51 52 55 54 59
56 52 49 42 37 42 39 38 42 41 37 36 34 34 34 33 32 31 30 28 25 22 15 14 14 16 16 16 15 17 22 28 32 38 49 53 54 52 52 50 48 48 51 50 48 50 57 61 59

GFSSGP_250_spd_060.txt.gz
Wind_Speed
49 48 47 51 51 52 51 49 51 53 57 60 62 63 63 64 67 70 71 71 70 72 75 77 77 77 76 74 74 75 74 74 68 68 66 70 71 71 72 72 65 63 64 60 67 75 78 77 82
48 48 49 48 50 47 45 46 48 49 51 53 56 58 59 61 62 63 64 65 67 69 72 72 73 72 72 71 72 72 73 74 68 68 63 65 67 67 66 63 64 57 59 62 55 58 65 66 59
45 46 45 46 45 46 43 43 45 45 45 45 48 52 55 56 58 60 59 60 65 66 66 66 65 63 67 68 69 70 70 69 65 66 67 63 63 65 62 54 51 51 54 58 59 60 57 50 52
41 41 40 43 42 42 41 37 39 38 37 37 41 45 49 54 55 55 56 56 57 56 55 54 54 50 50 53 59 60 67 69 63 62 66 64 63 63 61 55 54 51 52 55 49 46 35 35 39
40 39 39 39 39 41 36 35 36 31 31 36 41 44 47 47 48 49 49 47 46 38 29 31 26 31 40 45 45 50 55 61 60 60 60 59 62 58 55 54 45 45 45 37 30 30 29 24 30
38 36 37 38 37 37 33 36 31 27 33 37 43 44 42 42 40 35 29 25 22 21 17 14 13 10 21 27 29 29 41 48 52 56 56 55 54 51 44 37 36 40 33 25 25 25 22 21 25
38 33 34 39 37 34 31 33 26 29 38 36 40 39 35 32 27 14 6 14 28 34 31 25 20 17 7 18 8 15 26 33 42 47 50 51 50 45 36 36 37 33 28 18 15 15 13 16 18
38 35 34 38 36 30 29 24 24 31 34 39 38 37 31 22 14 1 9 21 31 38 38 26 34 29 23 24 25 20 29 29 32 39 44 49 49 43 35 34 36 31 24 22 21 19 14 18 22
37 36 32 35 32 25 21 20 25 26 35 37 33 31 28 23 10 3 6 29 25 30 34 32 36 34 27 22 20 27 25 22 26 34 41 46 45 39 41 35 30 26 26 26 23 23 21 27 20
36 34 34 32 28 21 19 19 22 28 26 30 32 28 28 22 14 5 6 25 26 21 26 35 40 34 30 30 29 22 26 22 16 28 35 39 42 41 45 38 35 29 28 31 27 27 26 31 27
38 32 33 29 24 21 22 20 26 22 23 30 32 31 25 21 16 7 11 18 24 27 28 39 34 33 31 41 25 27 29 19 22 22 30 37 48 47 46 37 34 28 32 36 28 25 27 30 34
39 32 33 26 22 22 26 20 23 23 22 30 34 33 26 20 17 14 13 20 21 24 31 43 47 37 39 45 36 32 40 31 33 35 28 37 48 50 49 35 31 28 35 35 26 31 31 31 35
38 31 32 26 24 23 27 19 22 24 21 27 35 35 28 17 16 18 14 22 26 26 33 43 42 38 37 40 45 39 40 35 40 41 43 42 43 51 51 35 35 34 38 37 36 39 34 29 35
37 30 31 26 23 26 23 17 24 21 22 24 33 38 30 19 12 17 15 25 31 28 32 41 43 35 32 35 46 46 42 41 45 42 44 47 47 49 49 34 31 38 40 36 37 40 36 36 38
37 29 29 26 25 28 25 20 23 22 25 21 29 36 31 22 12 16 21 21 33 33 36 36 33 35 25 38 43 44 41 38 37 47 45 47 39 39 47 37 37 37 39 38 35 35 28 35 34
36 30 30 27 28 29 25 20 24 22 22 20 24 31 33 26 16 10 19 23 25 40 38 44 38 32 38 34 38 48 42 39 39 40 40 41 47 41 35 39 38 40 46 44 36 34 35 34 43
38 34 29 28 28 28 26 22 24 21 23 23 22 26 30 34 19 8 11 18 25 38 42 48 43 44 35 37 41 40 45 41 43 40 44 46 43 44 48 47 47 48 47 49 39 42 46 41 43
38 30 31 31 29 28 29 22 24 20 24 23 22 25 27 29 30 14 12 11 13 21 46 44 53 40 48 42 46 41 43 47 45 43 44 46 49 50 52 52 47 48 46 47 47 52 48 46 48
33 36 34 30 30 30 32 27 24 25 24 23 21 25 26 26 30 22 11 13 10 14 22 44 52 52 47 41 45 47 45 43 45 48 45 49 49 53 53 53 50 52 52 53 52 48 46 50 55
40 39 38 26 28 31 34 33 26 28 27 25 23 25 24 24 23 32 21 11 14 12 13 21 37 54 54 48 42 48 43 48 46 44 46 45 48 49 53 50 51 50 48 47 49 49 55 60 64
44 44 37 28 31 34 37 36 28 28 28 27 26 24 20 24 21 23 28 18 11 15 15 11 17 37 61 58 52 47 47 44 45 46 49 51 52 52 54 54 54 52 53 53 57 62 66 67 66
45 49 37 31 30 33 39 40 29 29 26 27 26 24 19 18 20 20 23 26 15 11 17 16 10 14 32 61 67 58 52 56 55 51 50 49 47 49 54 57 56 56 58 60 61 63 64 63 64
53 46 38 34 35 35 38 38 27 29 25 26 24 23 19 15 17 20 23 22 26 15 10 19 17 12 10 24 45 64 67 54 58 62 64 57 52 51 51 56 61 58 59 63 64 63 65 65 60
48 45 40 39 38 37 40 38 36 26 26 26 24 22 20 16 16 14 19 18 21 19 13 12 20 18 15 11 22 36 55 58 57 56 57 57 56 54 58 60 61 60 61 63 63 65 67 69 67
46 48 45 43 42 42 37 32 42 34 27 28 28 27 19 19 19 16 13 16 19 16 17 10 11 20 21 20 19 22 27 32 45 49 53 55 57 59 61 62 63 62 65 66 69 68 66 64 61
50 54 51 46 43 48 37 34 43 37 32 31 30 30 24 19 23 20 16 12 15 16 18 15 10 10 23 27 22 20 19 22 24 28 41 43 46 49 53 57 60 60 63 63 64 59 57 56 54
49 48 50 48 44 42 40 39 47 40 37 35 33 32 27 24 21 25 21 15 12 17 16 13 12 9 9 19 28 29 27 26 23 24 27 28 30 33 37 43 49 50 50 51 53 57 56 53 53
54 52 51 45 42 41 40 41 49 46 40 38 36 33 27 26 25 23 26 20 18 15 16 14 10 9 8 5 12 28 33 34 34 34 32 34 35 37 43 49 50 49 50 52 54 56 55 48 48
54 54 53 50 49 47 45 40 48 47 41 42 38 34 30 28 27 25 26 24 24 22 19 16 9 8 9 11 6 5 16 30 43 44 41 43 43 44 46 47 45 48 50 52 51 53 56 58 59
55 56 50 53 52 52 52 49 44 48 47 44 38 36 35 31 28 26 26 29 26 29 28 20 17 13 13 13 12 12 7 7 13 25 35 41 49 55 59 57 57 58 56 59 57 59 56 56 54

GFSSGP_250_spd_063.txt.gz
Wind_Speed
45 46 47 50 55 55 54 49 52 50 50 51 51 54 56 60 63 66 69 70 73 73 76 74 79 80 80 79 79 80 80 80 77 77 72 73 73 74 74 74 71 71 70 72 72 69 64 70 73
45 44 48 49 51 52 53 49 48 48 46 46 48 51 53 56 58 62 65 66 68 69 71 71 76 76 74 73 70 70 73 74 74 73 67 66 67 65 67 68 68 68 62 59 61 61 66 61 61
44 52 49 49 47 48 50 45 47 44 42 43 42 45 48 53 55 59 60 61 62 62 63 61 65 64 65 66 62 63 67 69 71 72 68 64 63 63 61 61 48 63 56 51 53 47 54 59 54
45 45 46 46 46 44 47 44 43 42 39 37 40 41 41 48 54 55 56 56 57 56 51 53 55 55 56 55 54 54 58 61 63 64 65 65 63 63 62 60 59 58 51 48 45 44 47 50 48
49 45 47 43 44 43 42 42 39 35 39 33 33 38 40 42 46 49 51 51 49 40 38 38 34 30 32 33 32 33 38 49 56 59 61 60 60 59 63 64 60 54 47 47 44 47 44 38 33
52 46 46 42 41 41 39 40 36 32 35 28 34 38 39 37 42 42 43 42 36 32 23 19 20 17 15 13 4 19 28 33 40 52 53 64 54 54 53 57 57 51 48 46 47 36 33 23 22
58 46 48 45 41 39 39 41 34 33 27 28 36 40 40 34 38 37 36 36 28 25 28 32 27 23 26 29 14 14 26 26 24 35 45 53 48 57 54 50 47 43 37 26 29 27 17 17 19
59 49 49 47 40 39 39 38 31 22 24 30 38 39 35 35 32 31 32 27 25 40 34 38 34 37 34 34 31 34 21 29 26 32 31 40 46 48 48 46 39 35 25 31 28 27 21 14 14
58 57 45 48 40 37 38 35 23 19 23 32 36 37 35 33 29 23 23 25 30 43 40 36 38 38 37 42 37 45 16 53 44 31 27 34 42 54 44 41 35 36 25 31 32 29 25 18 22
55 55 49 45 38 37 36 32 21 19 25 29 33 32 32 32 27 21 25 29 27 36 40 37 40 50 44 38 50 36 27 38 43 29 27 30 37 43 45 37 35 39 36 34 33 31 29 26 24
50 50 45 46 38 35 33 29 22 21 26 29 32 31 33 32 27 21 25 29 28 35 42 36 33 42 43 37 44 49 50 53 40 26 24 24 35 40 44 36 40 38 38 39 34 34 30 33 32
43 49 45 50 39 34 32 31 24 23 24 28 26 27 35 32 28 20 21 29 32 31 32 40 33 38 35 39 48 44 46 41 33 22 20 22 25 34 37 40 44 41 40 40 36 29 28 29 27
43 42 43 45 38 33 31 31 27 22 25 26 27 25 32 34 26 21 17 27 28 31 31 32 36 39 39 36 42 51 48 40 28 27 25 25 23 32 37 45 47 41 39 37 35 29 39 26 28
44 36 41 40 37 34 33 33 25 20 21 26 27 22 29 32 28 22 18 22 30 32 33 33 45 46 49 43 41 43 46 35 31 28 29 31 20 26 41 44 45 42 39 34 32 28 24 27 34
41 39 41 41 35 35 33 33 24 24 20 24 23 24 27 31 33 23 18 22 31 37 31 34 45 51 52 43 39 49 41 39 38 41 42 37 29 25 27 38 48 40 37 32 38 38 33 32 30
42 39 41 41 35 33 32 33 28 25 21 24 25 21 25 28 30 30 18 17 24 32 35 34 45 50 53 46 41 44 48 42 36 42 45 38 36 37 35 43 50 41 37 33 40 43 38 38 40
41 44 42 40 37 31 32 31 28 26 23 23 25 22 23 25 27 32 22 14 23 28 39 35 40 43 40 45 34 43 47 48 40 40 43 40 37 39 38 43 44 45 38 37 40 38 40 42 44
49 48 40 39 35 33 33 30 29 27 26 23 23 24 24 22 24 27 26 18 18 21 26 44 41 40 39 33 38 40 41 46 44 40 37 40 42 42 42 44 44 43 36 37 42 49 43 47 51
51 50 41 42 37 34 33 29 30 30 24 22 21 27 26 20 21 25 25 21 16 18 20 32 42 44 50 46 36 37 40 48 45 43 45 38 38 45 41 45 45 43 42 46 53 55 51 49 48
52 46 45 45 38 35 31 33 31 33 24 20 24 29 25 23 17 22 24 24 16 14 17 20 40 43 50 49 43 41 46 43 45 48 46 42 42 43 47 50 48 49 52 54 56 53 56 53 53
52 50 53 47 38 35 32 36 33 35 30 21 22 26 25 22 15 17 20 21 22 14 15 18 20 36 48 49 54 40 44 50 46 44 41 47 47 47 47 49 55 57 57 59 59 57 58 57 55
54 55 51 43 38 38 33 37 37 35 33 25 24 25 22 22 16 13 17 17 17 16 12 17 18 22 35 44 53 55 48 42 50 48 48 48 46 48 51 52 53 54 59 60 64 62 58 60 62
57 58 49 43 40 39 37 37 38 31 33 32 25 26 19 19 17 16 13 16 15 18 13 11 17 20 20 29 44 60 57 55 42 51 52 52 54 50 54 54 53 54 53 55 59 63 63 64 67
62 56 49 42 43 40 43 39 36 34 36 34 28 26 23 20 20 16 18 14 13 14 17 17 13 18 23 21 31 43 57 58 55 57 58 56 55 54 51 48 48 54 57 63 65 63 65 65 67
55 53 50 44 39 44 50 42 38 37 33 33 31 27 25 23 23 21 17 18 14 13 14 18 18 12 17 22 19 29 42 57 59 60 60 59 63 64 62 59 59 60 61 64 65 63 65 67 68
53 54 53 50 46 48 51 43 45 40 37 36 35 32 29 25 24 25 22 19 18 15 14 13 17 15 11 17 24 23 28 39 59 66 62 65 64 64 61 63 63 62 62 61 63 66 67 71 73
54 54 55 55 46 46 49 49 46 46 43 41 38 35 34 27 24 20 22 22 17 19 15 14 11 13 13 13 17 27 28 29 37 48 56 69 67 65 65 67 68 69 68 69 70 72 70 67 66
54 58 52 52 52 49 52 48 53 50 47 44 44 37 35 32 26 21 20 20 20 20 19 17 16 9 8 13 12 14 25 34 33 32 38 43 47 54 61 69 73 72 74 71 67 67 64 59 58
55 56 54 51 56 49 54 50 53 53 48 48 45 39 38 36 31 23 20 22 22 20 22 22 19 20 14 9 10 9 12 16 28 37 38 38 39 42 45 47 50 52 54 54 54 56 58 59 63
54 57 58 57 53 48 53 51 50 50 49 48 47 43 37 38 37 32 28 25 24 25 24 26 27 21 22 19 15 11 11 9 12 17 26 40 47 46 44 46 49 50 52 53 56 58 57 59 61

GFSSGP_250_spd_066.txt.gz
Wind_Speed
40 41 38 38 44 48 50 48 41 49 44 48 46 45 50 52 54 57 60 62 65 66 71 72 72 74 75 74 75 77 77 77 76 74 77 76 76 75 75 77 77 78 75 75 74 75 75 76 75
40 42 38 38 42 45 46 45 40 44 45 43 45 46 45 48 51 54 61 61 62 62 67 66 68 68 68 69 70 69 69 68 68 65 68 68 70 69 67 69 70 69 70 70 71 70 68 70 68
45 42 42 38 38 43 46 43 35 39 41 43 43 43 42 45 44 49 55 58 59 58 60 62 60 58 60 60 59 60 60 60 61 58 58 61 64 65 64 63 63 61 63 59 59 56 56 56 55
55 47 46 43 45 43 39 48 33 36 38 41 42 41 37 42 42 48 49 52 54 54 54 55 54 54 52 53 49 44 44 42 42 45 43 48 53 55 60 60 57 56 54 42 46 46 40 40 45
56 53 52 47 48 43 37 42 38 36 37 41 38 43 37 42 43 44 47 48 48 48 45 48 48 46 42 37 31 30 20 32 21 20 29 35 44 49 53 58 57 54 53 48 55 53 51 48 46
62 62 54 52 53 53 40 43 42 38 38 42 38 42 38 41 37 43 44 42 42 38 32 31 24 19 18 21 23 20 14 20 27 32 31 32 40 44 50 54 57 56 55 55 55 55 50 42 42
67 65 57 54 54 51 40 41 41 38 41 41 37 35 33 42 38 43 43 38 39 30 25 22 27 25 29 38 43 36 36 22 44 46 44 35 31 38 47 47 50 53 53 54 54 51 44 41 36
68 65 54 53 51 49 40 40 39 39 41 40 32 30 30 35 38 36 36 36 33 28 30 31 39 35 35 41 42 41 36 36 38 45 51 42 44 36 39 38 46 53 46 38 40 38 29 28 26
68 57 57 58 56 49 36 40 40 37 39 37 28 27 32 39 37 37 30 33 28 25 35 45 39 41 48 42 43 41 47 54 35 49 51 51 38 36 34 40 41 43 37 32 30 22 26 28 24
64 54 57 59 51 42 39 34 40 35 35 35 29 28 35 34 37 35 29 32 26 26 44 52 46 44 48 48 43 43 34 42 50 56 48 53 44 31 37 36 42 40 33 30 26 29 34 25 26
61 50 59 56 48 41 37 38 43 34 34 34 28 30 27 34 34 31 27 27 27 30 43 53 45 44 42 42 46 55 48 59 49 47 44 45 37 32 32 41 45 46 35 37 26 32 33 31 32
58 53 57 53 45 38 37 35 42 35 35 34 29 29 27 31 32 31 25 21 23 31 37 50 38 40 47 50 58 59 55 53 45 39 39 38 31 36 30 35 40 43 39 45 34 35 34 34 37
53 55 54 47 39 36 34 38 38 35 36 32 30 30 29 29 32 30 27 18 19 36 34 49 43 44 46 49 53 56 52 45 40 44 38 30 24 27 29 32 37 41 42 48 39 37 43 39 34
52 55 51 42 34 33 34 35 37 34 36 32 27 24 27 32 31 29 27 18 18 35 38 40 46 44 35 48 55 59 54 51 40 52 48 40 28 23 35 32 33 41 48 45 39 38 43 40 32
49 49 43 37 33 33 32 35 39 32 35 32 25 23 26 29 30 28 25 20 16 33 35 36 48 46 42 47 59 59 64 57 43 44 44 40 40 28 25 25 33 42 47 47 33 41 41 41 33
46 48 40 38 31 35 31 40 36 32 35 30 28 26 27 27 29 23 21 23 16 22 35 36 43 43 46 48 50 64 61 61 53 52 46 39 30 32 22 21 30 37 41 46 33 42 40 37 32
48 40 36 36 33 37 34 40 34 32 34 29 28 26 24 24 27 22 20 24 21 15 27 45 39 42 54 53 55 56 63 67 59 52 46 39 38 37 33 30 27 33 43 43 40 39 42 41 40
46 41 37 36 36 37 37 40 35 32 32 29 29 29 24 24 24 22 17 22 27 19 17 34 42 41 49 57 60 54 51 52 55 50 41 37 44 41 38 35 34 31 38 41 41 36 36 44 44
44 38 33 32 36 37 41 40 35 31 31 30 29 29 23 25 25 22 18 19 23 24 15 18 34 48 41 55 60 57 50 42 55 56 51 43 41 46 37 38 37 40 37 40 41 38 37 36 42
41 41 40 40 37 37 43 41 33 28 33 33 30 25 24 27 24 21 20 16 20 24 20 15 18 26 48 46 50 62 43 40 48 55 48 51 40 39 42 45 41 42 45 43 41 41 38 45 49
36 40 40 39 42 43 45 41 34 31 35 33 33 26 20 24 23 21 19 17 17 20 22 18 18 20 32 46 45 48 52 43 40 47 50 51 49 47 40 40 40 49 47 46 50 45 48 50 54
42 43 45 48 50 43 47 41 36 34 34 34 35 34 25 26 20 20 19 18 15 16 20 18 17 17 21 39 48 50 50 46 43 44 50 49 51 51 49 43 43 45 50 50 49 51 52 57 61
50 51 51 51 49 47 44 41 40 35 32 37 35 35 29 26 22 18 19 19 18 14 16 20 19 16 16 23 33 52 51 56 46 48 46 51 50 51 51 47 48 49 50 52 56 54 58 63 65
52 48 51 53 49 46 43 45 44 38 35 34 37 37 34 30 24 21 21 19 19 20 15 16 19 19 16 19 23 27 49 59 57 58 48 52 57 54 48 49 51 55 53 55 56 54 55 59 67
47 48 52 51 49 45 46 45 49 40 36 32 35 40 35 30 24 22 22 19 21 19 20 19 14 20 19 11 19 21 26 44 56 59 58 56 52 56 58 56 56 55 54 54 58 58 59 63 64
47 39 42 50 53 53 46 38 49 42 37 35 38 38 35 30 25 24 25 17 20 19 22 20 15 15 17 13 11 20 22 22 37 58 59 63 60 59 60 59 56 55 58 58 60 64 65 68 71
51 43 48 55 58 53 47 40 42 44 41 38 39 41 37 33 30 30 26 21 19 17 18 22 21 15 13 13 13 12 17 24 24 33 59 61 61 63 61 63 62 63 64 65 64 65 67 66 69
54 48 54 55 51 50 52 48 46 43 46 42 41 42 41 40 35 31 26 24 20 19 18 20 23 20 17 14 12 12 11 13 26 28 33 54 66 64 64 65 65 67 67 64 65 64 64 66 69
58 56 51 50 52 50 49 51 56 51 45 46 43 42 42 42 42 37 32 29 30 24 18 20 22 24 26 20 17 16 13 11 11 19 35 34 41 50 56 64 64 64 64 69 72 71 70 72 73
57 58 54 51 52 50 50 51 51 54 48 49 50 46 43 42 43 39 37 31 33 30 25 26 25 21 22 27 26 23 19 16 14 12 13 19 35 43 40 44 46 51 55 61 63 70 75 75 74

GFSSGP_250_spd_069.txt.gz
Wind_Speed
48 43 43 42 40 43 45 45 43 36 39 50 52 52 51 48 50 56 56 54 55 59 62 63 65 66 67 69 71 73 74 73 72 72 72 73 73 73 73 74 74 75 75 76 75 75 75 75 74
47 48 47 45 41 43 45 43 39 28 34 41 45 47 48 41 45 46 53 55 50 54 59 59 64 63 63 63 64 65 66 67 65 62 60 60 59 59 58 60 63 64 68 68 67 68 70 70 71
47 48 46 46 46 50 45 41 41 35 34 34 38 41 39 40 42 42 48 51 51 44 54 55 57 57 59 60 59 60 60 59 57 54 52 54 56 56 54 53 53 56 56 57 57 59 61 60 59
54 46 46 45 52 59 55 46 35 30 32 31 38 38 33 39 42 43 45 44 47 44 47 53 47 50 53 50 48 48 45 42 42 40 39 43 46 48 48 48 48 52 53 51 51 52 52 54 52
60 55 51 53 60 61 57 56 36 37 33 28 32 40 34 36 42 43 44 44 44 45 41 46 43 44 44 37 35 27 25 22 19 18 19 26 27 28 34 39 45 48 52 47 48 43 45 39 34
63 64 61 62 65 64 60 58 40 45 33 32 34 37 32 40 40 43 39 40 42 43 39 40 40 39 36 31 23 14 23 19 11 13 15 16 26 25 25 25 37 44 48 45 47 41 35 45 44
73 72 70 68 71 75 63 55 45 41 34 30 37 37 34 39 36 36 38 39 39 39 38 37 35 27 21 25 31 32 34 31 28 17 19 36 43 42 40 30 26 39 40 42 47 48 42 52 54
77 74 72 73 77 79 70 54 48 43 37 32 37 37 34 35 37 35 38 37 39 37 36 34 24 24 25 38 44 48 45 40 36 23 42 38 53 45 47 42 39 34 38 40 42 47 48 46 49
81 82 76 76 84 90 70 52 49 46 34 30 35 37 34 33 35 32 31 40 39 36 34 30 28 35 29 52 52 53 52 43 45 38 45 41 45 47 43 42 46 34 35 42 32 42 39 36 32
85 85 83 92 89 80 68 49 43 44 37 30 31 38 36 33 34 29 30 37 42 33 32 27 33 40 40 52 53 56 52 54 49 49 50 56 42 41 48 44 38 42 37 37 35 34 29 26 25
89 83 90 86 75 68 56 46 45 43 38 31 32 36 33 35 32 28 31 32 41 33 30 27 42 39 41 50 57 57 50 58 56 45 40 56 40 34 45 42 37 34 31 39 32 27 28 28 20
92 92 87 63 65 59 48 47 44 40 38 31 33 36 32 36 30 31 32 33 35 32 25 19 47 40 40 52 54 53 56 62 54 53 50 55 47 40 39 39 40 39 28 33 32 27 28 25 30
98 91 61 50 56 51 45 45 41 38 35 30 33 35 34 32 30 31 29 31 36 29 25 25 30 42 49 45 49 46 52 53 56 47 48 49 46 44 31 28 29 34 33 31 32 32 31 31 36
95 62 49 44 48 46 43 40 37 36 32 29 32 33 33 26 25 29 28 28 32 29 24 25 29 46 52 51 48 42 46 48 52 43 53 51 45 39 31 22 23 24 23 28 35 39 37 37 35
72 48 40 36 40 38 41 37 34 36 26 29 31 32 32 22 24 26 28 26 28 27 20 26 32 30 55 47 53 51 51 50 49 43 43 45 48 42 43 38 34 32 27 32 38 46 46 41 40
61 46 32 34 37 39 40 33 38 29 25 31 31 32 31 24 25 23 26 22 23 25 21 24 33 33 43 49 54 53 58 54 54 47 47 50 50 50 42 31 37 34 36 38 44 50 47 41 40
51 32 37 38 41 45 40 35 35 25 27 32 32 29 29 25 23 19 23 19 21 21 20 18 32 35 43 50 57 59 55 61 59 58 56 51 43 44 45 35 31 24 26 36 41 48 49 44 39
41 37 43 47 48 50 44 36 32 27 30 32 30 28 30 25 24 18 21 17 18 18 19 17 23 40 41 52 58 55 60 63 60 60 66 65 51 46 45 38 32 28 25 32 42 46 52 45 38
35 41 46 46 49 46 41 31 31 29 31 30 29 30 28 26 23 20 19 19 16 18 18 20 15 27 42 45 52 54 56 66 64 60 65 62 58 53 44 41 36 34 33 31 44 45 47 42 41
38 49 43 49 50 45 39 31 34 29 31 30 29 31 29 26 20 24 19 20 17 18 15 18 15 18 38 46 44 55 55 65 67 71 66 65 65 53 47 52 51 43 42 41 43 42 45 42 40
47 55 52 52 51 43 36 32 35 35 34 31 28 31 31 20 18 14 17 20 15 14 15 14 18 17 21 42 49 46 60 64 64 56 63 61 63 57 53 49 44 40 39 42 43 42 40 40 43
50 53 53 49 49 37 33 33 31 34 33 27 27 29 33 26 23 16 16 17 15 11 14 15 15 17 14 19 33 52 47 64 66 60 57 54 57 67 64 57 51 41 39 41 40 44 47 49 45
47 53 49 45 39 34 27 27 31 35 34 32 29 30 36 31 29 24 18 18 17 14 15 16 16 16 16 15 18 33 53 49 56 63 60 49 49 44 55 55 52 47 45 42 47 48 50 53 55
48 50 43 41 40 34 36 34 36 36 41 36 29 30 36 33 28 29 23 22 17 17 15 16 18 16 18 17 13 21 38 52 50 54 55 50 44 48 49 54 55 54 56 52 50 49 53 56 58
49 48 50 41 39 34 37 39 38 36 40 39 33 29 38 35 30 30 27 25 22 18 15 14 18 17 14 17 14 12 22 32 56 57 57 54 50 49 50 53 52 53 55 56 56 54 52 55 56
44 45 42 41 47 38 39 36 38 38 34 38 36 35 33 31 31 31 30 27 23 21 19 13 14 19 17 13 14 14 12 20 26 41 61 61 59 60 56 54 56 57 56 56 55 56 57 56 60
47 41 45 43 48 40 36 37 42 37 33 37 40 39 34 31 32 30 32 31 28 25 22 15 16 17 18 18 15 15 13 12 17 22 30 47 64 63 62 61 63 60 58 59 60 61 61 62 63
50 50 48 48 52 40 34 40 42 40 36 37 40 39 36 35 35 32 33 33 31 26 25 22 18 16 16 18 19 20 18 14 14 15 25 27 28 56 62 63 63 64 66 64 65 65 64 66 68
53 51 48 47 49 44 37 38 44 45 47 39 30 34 40 38 36 36 36 37 37 30 26 26 25 19 19 22 21 19 24 20 16 15 17 22 29 30 43 62 61 61 65 65 67 67 68 71 72
56 53 54 53 44 40 39 40 43 43 48 48 44 37 34 41 40 38 38 41 41 39 36 28 30 28 24 20 22 22 20 25 25 25 22 17 19 25 36 39 42 47 49 54 60 65 69 68 70